KC5DAQ-22 Weather Reports


time (UTC)temp
C
wind
direction
speed
KPH
gust
KPH
rain 1hr
cm
rain 24hr
cm
rain mn
cm
humidity
%
barometer
mb
20260508102603 20 13 8.0 16.1 0.00 0.00 0.00 86 1011.0
20260508102503 20 13 8.0 16.1 0.00 0.00 0.00 86 1010.9
20260508102403 20 13 8.0 16.1 0.00 0.00 0.00 86 1010.9
20260508102306 20 13 8.0 16.1 0.00 0.00 0.00 86 1010.7
20260508102202 20 10 9.7 16.1 0.00 0.00 0.00 86 1010.6
20260508102103 20 14 9.7 16.1 0.00 0.00 0.00 86 1010.6
20260508102004 20 16 9.7 16.1 0.00 0.00 0.00 86 1010.5
20260508101903 20 8 9.7 17.7 0.00 0.00 0.00 86 1010.6
20260508101803 20 10 9.7 17.7 0.00 0.00 0.00 86 1010.6
20260508101702 20 6 11.3 17.7 0.00 0.00 0.00 86 1010.5
20260508101603 20 13 9.7 17.7 0.00 0.00 0.00 86 1010.5
20260508101502 20 4 8.0 17.7 0.00 0.00 0.00 86 1010.5
20260508101403 20 13 8.0 17.7 0.00 0.00 0.00 86 1010.5
20260508101303 20 10 8.0 17.7 0.00 0.00 0.00 86 1010.7
20260508101202 20 16 8.0 17.7 0.00 0.00 0.00 86 1010.7
20260508101103 20 10 9.7 17.7 0.00 0.00 0.00 86 1010.7
20260508101003 20 11 11.3 17.7 0.00 0.00 0.00 86 1010.6
20260508100902 20 10 9.7 16.1 0.00 0.00 0.00 86 1010.7
20260508100802 20 11 8.0 16.1 0.00 0.00 0.00 86 1010.8
20260508100704 20 8 6.4 16.1 0.00 0.00 0.00 86 1010.9
20260508100602 20 7 6.4 16.1 0.00 0.00 0.00 86 1011.0
20260508100502 20 0 6.4 16.1 0.00 0.00 0.00 86 1011.1
20260508100403 20 11 9.7 16.1 0.00 0.00 0.00 86 1011.1
20260508100302 20 10 9.7 16.1 0.00 0.00 0.00 86 1011.1
20260508100202 20 4 9.7 16.1 0.00 0.00 0.00 86 1011.2
20260508100103 20 8 9.7 16.1 0.00 0.00 0.00 86 1011.1
20260508100003 20 6 8.0 16.1 0.00 0.00 0.00 86 1011.2
20260508095902 20 11 8.0 16.1 0.00 0.00 0.00 87 1011.2
20260508095802 20 8 8.0 16.1 0.00 0.00 0.00 86 1011.3
20260508095702 20 6 8.0 16.1 0.00 0.00 0.00 86 1011.3
20260508095602 20 6 9.7 16.1 0.00 0.00 0.00 86 1011.3
20260508095502 20 4 8.0 16.1 0.00 0.00 0.00 86 1011.4
20260508095403 20 0 6.4 16.1 0.00 0.00 0.00 87 1011.3
20260508095306 20 1 6.4 16.1 0.00 0.00 0.00 87 1011.3
20260508095203 20 3 8.0 11.3 0.00 0.00 0.00 86 1011.3
20260508095102 20 7 8.0 11.3 0.00 0.00 0.00 86 1011.3
20260508095003 20 4 6.4 11.3 0.00 0.00 0.00 86 1011.3
20260508094903 20 4 6.4 16.1 0.00 0.00 0.00 86 1011.3
20260508094802 20 0 4.8 16.1 0.00 0.00 0.00 86 1011.3
20260508094703 20 0 3.2 16.1 0.00 0.00 0.00 86 1011.3
20260508094604 20 0 4.8 16.1 0.00 0.00 0.00 86 1011.3
20260508094503 20 0 4.8 16.1 0.00 0.00 0.00 86 1011.4
20260508094402 20 0 4.8 16.1 0.00 0.00 0.00 86 1011.4
20260508094303 20 0 4.8 16.1 0.00 0.00 0.00 86 1011.4
20260508094203 20 0 6.4 16.1 0.00 0.00 0.00 86 1011.4
20260508094103 20 4 8.0 16.1 0.00 0.00 0.00 86 1011.3
20260508094004 20 3 8.0 16.1 0.00 0.00 0.00 86 1011.2
20260508093903 20 0 6.4 14.5 0.00 0.00 0.00 86 1011.1
20260508093803 20 7 6.4 19.3 0.00 0.00 0.00 86 1011.1
20260508093704 20 4 8.0 19.3 0.00 0.00 0.00 86 1010.9
20260508093602 20 13 6.4 19.3 0.00 0.00 0.00 86 1010.8
20260508093502 20 7 6.4 19.3 0.00 0.00 0.00 86 1010.6
20260508093403 20 11 8.0 19.3 0.00 0.00 0.00 86 1010.6
20260508093303 20 16 8.0 19.3 0.00 0.00 0.00 86 1010.5
20260508093202 20 17 9.7 19.3 0.00 0.00 0.00 86 1010.6
20260508093102 20 13 9.7 19.3 0.00 0.00 0.00 86 1010.6
20260508093005 20 13 9.7 22.5 0.00 0.00 0.00 86 1010.6
20260508092903 20 14 12.9 22.5 0.00 0.00 0.00 86 1010.6
20260508092803 20 16 12.9 22.5 0.00 0.00 0.00 86 1010.5
20260508092702 20 17 14.5 22.5 0.00 0.00 0.00 86 1010.5
20260508092602 20 14 12.9 22.5 0.00 0.00 0.00 86 1010.5
20260508092503 20 10 11.3 22.5 0.00 0.00 0.00 86 1010.5
20260508092401 20 17 9.7 22.5 0.00 0.00 0.00 86 1010.5
20260508092312 20 14 11.3 22.5 0.00 0.00 0.00 86 1010.5
20260508092202 20 16 16.1 22.5 0.00 0.00 0.00 86 1010.4
20260508092101 20 18 16.1 22.5 0.00 0.00 0.00 86 1010.3
20260508092003 20 13 14.5 20.9 0.00 0.00 0.00 86 1010.4
20260508091903 20 18 14.5 20.9 0.00 0.00 0.00 86 1010.5
20260508091802 20 16 14.5 20.9 0.00 0.00 0.00 86 1010.6
20260508091702 20 10 11.3 17.7 0.00 0.00 0.00 86 1010.6
20260508091604 20 11 8.0 14.5 0.00 0.00 0.00 86 1010.6
20260508091502 20 11 6.4 14.5 0.00 0.00 0.00 86 1010.7
20260508091401 20 8 6.4 14.5 0.00 0.00 0.00 86 1010.8
20260508091300 20 8 8.0 14.5 0.00 0.00 0.00 86 1010.8
20260508091159 20 7 6.4 14.5 0.00 0.00 0.00 86 1010.8
20260508091056 20 7 6.4 14.5 0.00 0.00 0.00 86 1010.8
20260508090955 20 8 8.0 14.5 0.00 0.00 0.00 85 1010.8
20260508090852 20 7 9.7 14.5 0.00 0.00 0.00 85 1010.8
20260508090751 20 8 8.0 14.5 0.00 0.00 0.00 85 1010.8
20260508090649 20 6 8.0 11.3 0.00 0.00 0.00 85 1010.7
20260508090549 20 6 8.0 11.3 0.00 0.00 0.00 85 1010.7
20260508090446 20 8 8.0 11.3 0.00 0.00 0.00 85 1010.7
20260508090342 20 8 8.0 11.3 0.00 0.00 0.00 85 1010.9
20260508090239 20 8 9.7 11.3 0.00 0.00 0.00 85 1010.9
20260508090138 20 7 8.0 11.3 0.00 0.00 0.00 85 1011.0
20260508090039 20 7 8.0 11.3 0.00 0.00 0.00 85 1011.0
20260508085935 20 14 6.4 11.3 0.00 0.00 0.00 85 1011.1
20260508085835 20 11 6.4 11.3 0.00 0.00 0.00 85 1011.1
20260508085736 20 13 6.4 11.3 0.00 0.00 0.00 85 1011.1
20260508085634 20 13 8.0 11.3 0.00 0.00 0.00 85 1011.1
20260508085534 20 11 9.7 11.3 0.00 0.00 0.00 85 1011.1
20260508085434 20 11 8.0 9.7 0.00 0.00 0.00 85 1011.1
20260508085335 20 7 6.4 9.7 0.00 0.00 0.00 85 1011.2
20260508085234 20 10 4.8 9.7 0.00 0.00 0.00 85 1011.1
20260508085134 20 8 6.4 9.7 0.00 0.00 0.00 85 1011.0
20260508085035 20 8 8.0 9.7 0.00 0.00 0.00 85 1011.0
20260508084934 20 8 8.0 9.7 0.00 0.00 0.00 85 1011.0
20260508084835 20 6 6.4 9.7 0.00 0.00 0.00 85 1011.0
20260508084735 20 10 6.4 9.7 0.00 0.00 0.00 85 1011.0
20260508084635 20 8 6.4 9.7 0.00 0.00 0.00 85 1011.1
20260508084534 20 11 6.4 9.7 0.00 0.00 0.00 85 1011.1
20260508084434 20 6 6.4 9.7 0.00 0.00 0.00 85 1011.1
20260508084335 20 10 6.4 9.7 0.00 0.00 0.00 85 1011.1
20260508084234 20 10 6.4 9.7 0.00 0.00 0.00 85 1011.1
20260508084135 20 10 6.4 9.7 0.00 0.00 0.00 85 1011.2
20260508084035 20 10 6.4 9.7 0.00 0.00 0.00 85 1011.2
20260508083935 20 8 4.8 9.7 0.00 0.00 0.00 85 1011.2
20260508083834 20 11 4.8 9.7 0.00 0.00 0.00 85 1011.2
20260508083734 20 7 4.8 9.7 0.00 0.00 0.00 85 1011.3
20260508083635 20 8 6.4 9.7 0.00 0.00 0.00 85 1011.2
20260508083534 20 7 6.4 9.7 0.00 0.00 0.00 85 1011.3
20260508083435 20 4 4.8 9.7 0.00 0.00 0.00 85 1011.3
20260508083334 20 4 4.8 9.7 0.00 0.00 0.00 85 1011.3
20260508083233 20 4 4.8 11.3 0.00 0.00 0.00 85 1011.3
20260508083136 20 3 4.8 11.3 0.00 0.00 0.00 85 1011.3
20260508083032 20 3 4.8 16.1 0.00 0.00 0.00 85 1011.2
20260508082931 20 3 6.4 16.1 0.00 0.00 0.00 84 1011.3
20260508082831 20 3 6.4 16.1 0.00 0.00 0.00 84 1011.2
20260508082732 20 3 8.0 16.1 0.00 0.00 0.00 84 1011.3
20260508082631 20 6 6.4 16.1 0.00 0.00 0.00 84 1011.2
20260508082530 20 4 6.4 16.1 0.00 0.00 0.00 84 1011.2
20260508082431 20 6 8.0 16.1 0.00 0.00 0.00 84 1011.2
20260508082332 20 4 9.7 16.1 0.00 0.00 0.00 84 1011.1
20260508082230 20 6 9.7 17.7 0.00 0.00 0.00 84 1011.1
20260508082128 20 7 8.0 17.7 0.00 0.00 0.00 84 1011.1
20260508082023 20 6 8.0 17.7 0.00 0.00 0.00 84 1011.0
20260508081921 20 8 8.0 17.7 0.00 0.00 0.00 84 1011.0
20260508081821 20 6 8.0 17.7 0.00 0.00 0.00 84 1011.0
20260508081718 20 7 9.7 19.3 0.00 0.00 0.00 84 1010.9
20260508081617 20 8 9.7 19.3 0.00 0.00 0.00 84 1011.0
20260508081516 20 4 8.0 19.3 0.00 0.00 0.00 84 1010.9
20260508081415 20 10 9.7 19.3 0.00 0.00 0.00 84 1010.9
20260508081313 20 6 12.9 19.3 0.00 0.00 0.00 84 1010.9
20260508081210 20 7 11.3 19.3 0.00 0.00 0.00 84 1010.9
20260508081108 20 7 9.7 19.3 0.00 0.00 0.00 84 1010.9
20260508081007 20 6 11.3 19.3 0.00 0.00 0.00 84 1010.9
20260508080903 20 11 14.5 19.3 0.00 0.00 0.00 84 1010.8
20260508080804 20 7 12.9 19.3 0.00 0.00 0.00 84 1010.9
20260508080704 20 8 12.9 17.7 0.00 0.00 0.00 84 1011.0
20260508080602 20 6 12.9 17.7 0.00 0.00 0.00 84 1010.9
20260508080504 20 3 12.9 17.7 0.00 0.00 0.00 84 1010.9
20260508080403 20 7 11.3 17.7 0.00 0.00 0.00 84 1011.0
20260508080303 20 7 9.7 17.7 0.00 0.00 0.00 84 1011.1
20260508080203 20 8 9.7 17.7 0.00 0.00 0.00 84 1011.2
20260508080002 20 6 8.0 14.5 0.00 0.00 0.00 84 1011.2
20260508075903 20 7 8.0 14.5 0.00 0.00 0.00 84 1011.3
20260508075804 20 0 8.0 14.5 0.00 0.00 0.00 84 1011.4
20260508075702 20 0 6.4 11.3 0.00 0.00 0.00 84 1011.4
20260508075602 20 6 6.4 11.3 0.00 0.00 0.00 84 1011.5
20260508075503 20 0 6.4 11.3 0.00 0.00 0.00 84 1011.5
20260508075403 20 3 6.4 11.3 0.00 0.00 0.00 84 1011.5
20260508075301 20 3 6.4 11.3 0.00 0.00 0.00 84 1011.5
20260508075203 20 0 4.8 11.3 0.00 0.00 0.00 84 1011.4
20260508075103 20 6 4.8 14.5 0.00 0.00 0.00 84 1011.5
20260508075004 20 4 4.8 14.5 0.00 0.00 0.00 84 1011.4
20260508074902 20 4 6.4 14.5 0.00 0.00 0.00 84 1011.4
20260508074802 20 6 6.4 14.5 0.00 0.00 0.00 84 1011.4
20260508074703 20 3 6.4 14.5 0.00 0.00 0.00 83 1011.4
20260508074602 20 4 8.0 14.5 0.00 0.00 0.00 84 1011.3
20260508074503 20 4 8.0 14.5 0.00 0.00 0.00 84 1011.4
20260508074403 20 0 6.4 14.5 0.00 0.00 0.00 84 1011.4
20260508074302 20 3 6.4 14.5 0.00 0.00 0.00 84 1011.4
20260508074202 20 0 6.4 14.5 0.00 0.00 0.00 84 1011.5
20260508074103 20 3 4.8 14.5 0.00 0.00 0.00 84 1011.5
20260508074004 20 4 3.2 14.5 0.00 0.00 0.00 84 1011.6
20260508073902 20 0 4.8 14.5 0.00 0.00 0.00 84 1011.6
20260508073802 20 0 6.4 14.5 0.00 0.00 0.00 84 1011.6
20260508073704 20 6 8.0 14.5 0.00 0.00 0.00 84 1011.6
20260508073603 20 7 8.0 14.5 0.00 0.00 0.00 84 1011.7
20260508073505 20 3 6.4 14.5 0.00 0.00 0.00 83 1011.6
20260508073402 20 3 6.4 9.7 0.00 0.00 0.00 83 1011.7
20260508073302 20 3 6.4 9.7 0.00 0.00 0.00 83 1011.6
20260508073202 20 0 4.8 11.3 0.00 0.00 0.00 83 1011.6
20260508073102 20 0 4.8 11.3 0.00 0.00 0.00 83 1011.6
20260508073005 20 3 3.2 14.5 0.00 0.00 0.00 83 1011.6
20260508072902 20 0 4.8 14.5 0.00 0.00 0.00 83 1011.6
20260508072803 20 0 6.4 14.5 0.00 0.00 0.00 83 1011.5
20260508072703 20 7 6.4 14.5 0.00 0.00 0.00 83 1011.5
20260508072602 20 1 4.8 14.5 0.00 0.00 0.00 83 1011.5
20260508072502 20 0 4.8 14.5 0.00 0.00 0.00 83 1011.4
20260508072403 20 1 6.4 14.5 0.00 0.00 0.00 83 1011.5
20260508072307 20 0 6.4 14.5 0.00 0.00 0.00 83 1011.4
20260508072204 20 4 8.0 14.5 0.00 0.00 0.00 83 1011.4
20260508072103 20 0 8.0 14.5 0.00 0.00 0.00 83 1011.4
20260508072004 20 6 4.8 11.3 0.00 0.00 0.00 83 1011.3
20260508071903 20 0 6.4 11.3 0.00 0.00 0.00 83 1011.3
20260508071802 20 4 8.0 11.3 0.00 0.00 0.00 83 1011.3
20260508071703 20 7 6.4 11.3 0.00 0.00 0.00 83 1011.3
20260508071602 20 6 6.4 9.7 0.00 0.00 0.00 83 1011.3
20260508071502 20 6 6.4 9.7 0.00 0.00 0.00 83 1011.3
20260508071402 20 7 6.4 9.7 0.00 0.00 0.00 83 1011.4
20260508071302 20 3 3.2 14.5 0.00 0.00 0.00 83 1011.4
20260508071202 20 1 3.2 14.5 0.00 0.00 0.00 83 1011.5
20260508071104 20 1 4.8 14.5 0.00 0.00 0.00 84 1011.5
20260508071003 20 1 4.8 14.5 0.00 0.00 0.00 84 1011.5
20260508070902 20 10 4.8 14.5 0.00 0.00 0.00 84 1011.5
20260508070804 20 8 8.0 14.5 0.00 0.00 0.00 84 1011.4
20260508070704 20 8 8.0 14.5 0.00 0.00 0.00 84 1011.3
20260508070603 20 8 8.0 14.5 0.00 0.00 0.00 84 1011.3
20260508070504 20 8 8.0 14.5 0.00 0.00 0.00 84 1011.3
20260508070402 20 0 6.4 14.5 0.00 0.00 0.00 84 1011.3
20260508070304 20 3 3.2 8.0 0.00 0.00 0.00 84 1011.3
20260508070202 20 4 3.2 8.0 0.00 0.00 0.00 84 1011.4
20260508070105 20 4 3.2 8.0 0.00 0.00 0.00 84 1011.4
20260508070003 20 4 4.8 8.0 0.00 0.00 0.00 84 1011.4
20260508065902 20 4 6.4 8.0 0.00 0.00 0.00 84 1011.3
20260508065804 20 4 6.4 8.0 0.00 0.00 0.00 84 1011.3
20260508065704 20 7 6.4 8.0 0.00 0.00 0.00 84 1011.2
20260508065603 20 7 6.4 9.7 0.00 0.00 0.00 84 1011.3
20260508065505 20 7 6.4 9.7 0.00 0.00 0.00 84 1011.2
20260508065404 20 7 6.4 9.7 0.00 0.00 0.00 84 1011.3
20260508065306 20 7 6.4 9.7 0.00 0.00 0.00 84 1011.3
20260508065202 20 6 6.4 9.7 0.00 0.00 0.00 84 1011.4
20260508065103 20 8 6.4 9.7 0.00 0.00 0.00 83 1011.4
20260508065002 20 8 6.4 9.7 0.00 0.00 0.00 84 1011.4
20260508064904 20 7 6.4 9.7 0.00 0.00 0.00 84 1011.4
20260508064801 20 6 8.0 9.7 0.00 0.00 0.00 84 1011.5
20260508064702 20 7 8.0 9.7 0.00 0.00 0.00 84 1011.5
20260508064603 20 7 6.4 9.7 0.00 0.00 0.00 84 1011.5
20260508064503 20 10 4.8 8.0 0.00 0.00 0.00 84 1011.5
20260508064402 20 11 4.8 8.0 0.00 0.00 0.00 84 1011.5
20260508064303 20 11 4.8 8.0 0.00 0.00 0.00 84 1011.6
20260508064202 20 11 4.8 8.0 0.00 0.00 0.00 84 1011.5
20260508064102 20 4 3.2 8.0 0.00 0.00 0.00 84 1011.5
20260508064003 20 4 4.8 8.0 0.00 0.00 0.00 84 1011.4
20260508063904 20 7 4.8 8.0 0.00 0.00 0.00 83 1011.5
20260508063804 20 6 4.8 8.0 0.00 0.00 0.00 83 1011.5
20260508063703 20 4 4.8 8.0 0.00 0.00 0.00 83 1011.5
20260508063603 20 4 4.8 8.0 0.00 0.00 0.00 83 1011.6
20260508063503 20 4 4.8 8.0 0.00 0.00 0.00 83 1011.5
20260508063403 20 10 4.8 9.7 0.00 0.00 0.00 83 1011.6
20260508063303 20 10 4.8 11.3 0.00 0.00 0.00 83 1011.6
20260508063201 20 6 4.8 11.3 0.00 0.00 0.00 83 1011.6
20260508063102 20 8 3.2 11.3 0.00 0.00 0.00 83 1011.5
20260508063002 20 8 3.2 11.3 0.00 0.00 0.00 83 1011.5
20260508062904 20 11 3.2 11.3 0.00 0.00 0.00 83 1011.4
20260508062803 20 11 6.4 11.3 0.00 0.00 0.00 83 1011.4
20260508062701 20 13 6.4 11.3 0.00 0.00 0.00 83 1011.4
20260508062602 20 11 6.4 11.3 0.00 0.00 0.00 83 1011.4
20260508062504 20 13 8.0 11.3 0.00 0.00 0.00 83 1011.3
20260508062402 20 13 6.4 11.3 0.00 0.00 0.00 84 1011.3
20260508062306 20 17 6.4 9.7 0.00 0.00 0.00 83 1011.3
20260508062203 20 17 6.4 9.7 0.00 0.00 0.00 83 1011.3
20260508062102 20 14 6.4 8.0 0.00 0.00 0.00 84 1011.3
20260508062005 20 16 6.4 8.0 0.00 0.00 0.00 84 1011.4
20260508061903 20 16 6.4 8.0 0.00 0.00 0.00 84 1011.4
20260508061803 20 14 4.8 8.0 0.00 0.00 0.00 84 1011.5
20260508061701 20 13 4.8 8.0 0.00 0.00 0.00 84 1011.5
20260508061600 20 11 4.8 8.0 0.00 0.00 0.00 84 1011.6
20260508061459 20 13 3.2 8.0 0.00 0.00 0.00 84 1011.6
20260508061358 20 4 3.2 8.0 0.00 0.00 0.00 84 1011.7
20260508061245 20 4 4.8 8.0 0.00 0.00 0.00 84 1011.8
20260508061142 20 4 3.2 8.0 0.00 0.00 0.00 84 1011.8
20260508061042 20 1 1.6 6.4 0.00 0.00 0.00 84 1011.9
20260508060940 20 1 1.6 6.4 0.00 0.00 0.00 83 1012.0
20260508060835 20 1 0.0 6.4 0.00 0.00 0.00 83 1012.0
20260508060735 20 1 1.6 6.4 0.00 0.00 0.00 83 1012.1
20260508060632 20 1 1.6 6.4 0.00 0.00 0.00 83 1011.9
20260508060532 20 4 1.6 6.4 0.00 0.00 0.00 83 1011.9
20260508060432 20 4 1.6 6.4 0.00 0.00 0.00 83 1011.8
20260508060331 20 3 3.2 6.4 0.00 0.00 0.00 83 1011.7
20260508060231 20 4 3.2 8.0 0.00 0.00 0.00 83 1011.7
20260508060131 20 6 3.2 8.0 0.00 0.00 0.00 83 1011.7
20260508060032 20 1 3.2 8.0 0.00 0.00 0.00 83 1011.6
20260508055931 20 1 3.2 8.0 0.00 0.00 0.00 83 1011.7
20260508055831 20 4 3.2 8.0 0.00 0.00 0.00 83 1011.6
20260508055733 20 34 3.2 8.0 0.00 0.00 0.00 83 1011.7
20260508055631 20 34 4.8 8.0 0.00 0.00 0.00 83 1011.5
20260508055531 20 35 3.2 8.0 0.00 0.00 0.00 83 1011.5
20260508055432 20 35 4.8 8.0 0.00 0.00 0.00 82 1011.4
20260508055331 20 58 4.8 8.0 0.00 0.00 0.00 82 1011.3
20260508055231 20 58 3.2 8.0 0.00 0.00 0.00 82 1011.3
20260508055131 20 62 4.8 9.7 0.00 0.00 0.00 82 1011.2
20260508055032 20 61 4.8 9.7 0.00 0.00 0.00 82 1011.3
20260508054932 20 51 3.2 9.7 0.00 0.00 0.00 82 1011.3
20260508054831 20 48 3.2 9.7 0.00 0.00 0.00 82 1011.3
20260508054732 20 45 3.2 9.7 0.00 0.00 0.00 82 1011.3
20260508054632 20 45 4.8 9.7 0.00 0.00 0.00 82 1011.3
20260508054531 20 44 3.2 9.7 0.00 0.00 0.00 82 1011.4
20260508054432 20 42 4.8 9.7 0.00 0.00 0.00 82 1011.4
20260508054332 20 62 6.4 9.7 0.00 0.00 0.00 82 1011.5
20260508054231 20 58 4.8 9.7 0.00 0.00 0.00 82 1011.6
20260508054131 20 52 3.2 9.7 0.00 0.00 0.00 82 1011.4
20260508054032 20 54 4.8 9.7 0.00 0.00 0.00 82 1011.4
20260508053932 20 62 4.8 9.7 0.00 0.00 0.00 82 1011.4
20260508053831 20 68 6.4 9.7 0.00 0.00 0.00 82 1011.4
20260508053731 20 52 6.4 9.7 0.00 0.00 0.00 82 1011.5
20260508053631 20 39 4.8 9.7 0.00 0.00 0.00 82 1011.5
20260508053532 20 49 4.8 8.0 0.00 0.00 0.00 82 1011.5
20260508053432 20 51 6.4 8.0 0.00 0.00 0.00 82 1011.4
20260508053332 20 41 6.4 8.0 0.00 0.00 0.00 82 1011.5
20260508053232 20 37 4.8 8.0 0.00 0.00 0.00 82 1011.4
20260508053130 20 32 4.8 8.0 0.00 0.00 0.00 81 1011.5
20260508053031 21 32 3.2 9.7 0.00 0.00 0.00 81 1011.5
20260508052931 21 32 3.2 9.7 0.00 0.00 0.00 81 1011.5
20260508052830 21 32 3.2 9.7 0.00 0.00 0.00 81 1011.5
20260508052730 21 32 3.2 9.7 0.00 0.00 0.00 81 1011.4
20260508052631 21 21 4.8 9.7 0.00 0.00 0.00 81 1011.5
20260508052532 21 38 4.8 9.7 0.00 0.00 0.00 81 1011.4
20260508052429 21 35 4.8 9.7 0.00 0.00 0.00 81 1011.5
20260508052330 21 32 4.8 9.7 0.00 0.00 0.00 81 1011.4
20260508052232 21 35 6.4 9.7 0.00 0.00 0.00 81 1011.4
20260508052131 21 35 6.4 9.7 0.00 0.00 0.00 81 1011.4
20260508052029 21 39 4.8 9.7 0.00 0.00 0.00 81 1011.4
20260508051930 21 30 4.8 9.7 0.00 0.00 0.00 81 1011.4
20260508051831 21 37 4.8 9.7 0.00 0.00 0.00 81 1011.3
20260508051729 21 54 4.8 9.7 0.00 0.00 0.00 81 1011.3
20260508051629 21 55 3.2 9.7 0.00 0.00 0.00 81 1011.4
20260508051531 21 48 4.8 9.7 0.00 0.00 0.00 81 1011.3
20260508051431 21 83 3.2 9.7 0.00 0.00 0.00 81 1011.3
20260508051329 21 45 3.2 9.7 0.00 0.00 0.00 81 1011.3
20260508051230 21 39 6.4 9.7 0.00 0.00 0.00 81 1011.3
20260508051130 21 54 6.4 9.7 0.00 0.00 0.00 81 1011.3
20260508051029 21 45 6.4 9.7 0.00 0.00 0.00 80 1011.3
20260508050929 21 58 6.4 9.7 0.00 0.00 0.00 81 1011.4
20260508050832 21 59 6.4 8.0 0.00 0.00 0.00 80 1011.4
20260508050731 21 59 4.8 8.0 0.00 0.00 0.00 80 1011.5
20260508050629 21 31 4.8 8.0 0.00 0.00 0.00 80 1011.5
20260508050529 21 31 4.8 8.0 0.00 0.00 0.00 80 1011.6
20260508050431 21 42 4.8 8.0 0.00 0.00 0.00 80 1011.6
20260508050329 21 42 6.4 8.0 0.00 0.00 0.00 80 1011.6
20260508050230 21 35 6.4 8.0 0.00 0.00 0.00 80 1011.6
20260508050131 21 45 4.8 8.0 0.00 0.00 0.00 80 1011.6
20260508050030 21 45 4.8 8.0 0.00 0.00 0.00 80 1011.5
20260508045931 21 45 4.8 8.0 0.00 0.00 0.00 80 1011.4
20260508045806 21 59 4.8 8.0 0.00 0.00 0.00 80 1011.5
20260508045705 21 31 3.2 8.0 0.00 0.00 0.00 80 1011.4
20260508045603 21 31 3.2 8.0 0.00 0.00 0.00 80 1011.6
20260508045504 21 31 3.2 8.0 0.00 0.00 0.00 80 1011.6
20260508045402 21 31 3.2 9.7 0.00 0.00 0.00 80 1011.7
20260508045306 21 31 3.2 9.7 0.00 0.00 0.00 80 1011.6
20260508045203 21 31 3.2 9.7 0.00 0.00 0.00 80 1011.7
20260508045102 21 31 4.8 9.7 0.00 0.00 0.00 79 1011.7
20260508045003 21 31 4.8 9.7 0.00 0.00 0.00 79 1011.7
20260508044902 21 42 4.8 9.7 0.00 0.00 0.00 79 1011.6
20260508044802 21 31 4.8 9.7 0.00 0.00 0.00 79 1011.6
20260508044702 21 31 4.8 9.7 0.00 0.00 0.00 79 1011.5
20260508044603 21 30 6.4 14.5 0.00 0.00 0.00 79 1011.6
20260508044504 21 28 6.4 14.5 0.00 0.00 0.00 78 1011.7
20260508044403 21 34 6.4 14.5 0.00 0.00 0.00 78 1011.7
20260508044303 21 28 6.4 14.5 0.00 0.00 0.00 78 1011.7
20260508044203 21 34 8.0 16.1 0.00 0.00 0.00 78 1011.8
20260508044103 21 32 8.0 17.7 0.00 0.00 0.00 78 1011.8
20260508044004 21 31 6.4 17.7 0.00 0.00 0.00 78 1011.8
20260508043902 21 44 4.8 17.7 0.00 0.00 0.00 78 1011.8
20260508043802 21 63 6.4 17.7 0.00 0.00 0.00 78 1011.6
20260508043703 21 45 9.7 17.7 0.00 0.00 0.00 78 1011.6
20260508043603 21 56 9.7 17.7 0.00 0.00 0.00 78 1011.6
20260508043504 21 80 8.0 17.7 0.00 0.00 0.00 78 1011.6
20260508043402 21 65 9.7 17.7 0.00 0.00 0.00 78 1011.6
20260508043304 21 51 12.9 17.7 0.00 0.00 0.00 78 1011.7
20260508043203 21 103 11.3 17.7 0.00 0.00 0.00 79 1011.7
20260508043103 21 71 8.0 14.5 0.00 0.00 0.00 79 1011.7
20260508043002 21 90 6.4 14.5 0.00 0.00 0.00 79 1011.8
20260508042904 21 76 8.0 14.5 0.00 0.00 0.00 79 1011.7
20260508042802 21 71 8.0 14.5 0.00 0.00 0.00 79 1011.7
20260508042702 21 58 8.0 14.5 0.00 0.00 0.00 79 1011.7
20260508042603 21 86 4.8 14.5 0.00 0.00 0.00 79 1011.7
20260508042503 21 82 3.2 14.5 0.00 0.00 0.00 79 1011.8
20260508042402 21 82 6.4 14.5 0.00 0.00 0.00 79 1011.7
20260508042306 21 92 8.0 14.5 0.00 0.00 0.00 79 1011.7
20260508042203 21 94 8.0 14.5 0.00 0.00 0.00 79 1011.6
20260508042104 21 75 6.4 14.5 0.00 0.00 0.00 79 1011.6
20260508042003 21 87 6.4 14.5 0.00 0.00 0.00 79 1011.6
20260508041901 21 79 9.7 14.5 0.00 0.00 0.00 79 1011.6
20260508041802 21 68 9.7 14.5 0.00 0.00 0.00 79 1011.6
20260508041703 21 47 8.0 16.1 0.00 0.00 0.00 79 1011.6
20260508041603 21 32 4.8 16.1 0.00 0.00 0.00 79 1011.6
20260508041504 21 41 4.8 16.1 0.00 0.00 0.00 79 1011.5
20260508041403 21 52 8.0 19.3 0.00 0.00 0.00 79 1011.5
20260508041303 21 59 8.0 19.3 0.00 0.00 0.00 79 1011.4
20260508041202 21 55 8.0 19.3 0.00 0.00 0.00 79 1011.3
20260508041102 21 56 8.0 19.3 0.00 0.00 0.00 79 1011.3
20260508041002 21 48 9.7 19.3 0.00 0.00 0.00 79 1011.3
20260508040903 21 38 9.7 19.3 0.00 0.00 0.00 79 1011.3
20260508040802 21 73 9.7 19.3 0.00 0.00 0.00 79 1011.2
20260508040702 21 54 9.7 19.3 0.00 0.00 0.00 79 1011.4
20260508040602 21 82 11.3 19.3 0.00 0.00 0.00 79 1011.4
20260508040504 21 68 11.3 19.3 0.00 0.00 0.00 79 1011.4
20260508040402 21 73 8.0 16.1 0.00 0.00 0.00 79 1011.4
20260508040302 21 76 9.7 17.7 0.00 0.00 0.00 79 1011.4
20260508040203 21 58 9.7 17.7 0.00 0.00 0.00 79 1011.4
20260508040003 21 52 9.7 17.7 0.00 0.00 0.00 79 1011.4
20260508035903 21 78 9.7 17.7 0.00 0.00 0.00 79 1011.5
20260508035803 21 45 9.7 19.3 0.00 0.00 0.00 79 1011.4
20260508035702 21 47 9.7 19.3 0.00 0.00 0.00 79 1011.4
20260508035603 21 83 9.7 19.3 0.00 0.00 0.00 79 1011.4
20260508035504 21 83 9.7 19.3 0.00 0.00 0.00 79 1011.4
20260508035402 21 61 9.7 19.3 0.00 0.00 0.00 79 1011.4
20260508035306 21 71 9.7 19.3 0.00 0.00 0.00 79 1011.4
20260508035204 21 63 11.3 19.3 0.00 0.00 0.00 79 1011.4
20260508035103 21 55 11.3 19.3 0.00 0.00 0.00 79 1011.5
20260508035004 21 61 12.9 19.3 0.00 0.00 0.00 78 1011.5
20260508034901 21 51 11.3 19.3 0.00 0.00 0.00 79 1011.5
20260508034803 21 52 8.0 16.1 0.00 0.00 0.00 78 1011.6
20260508034702 21 59 8.0 16.1 0.00 0.00 0.00 78 1011.7
20260508034604 21 56 9.7 16.1 0.00 0.00 0.00 78 1011.7
20260508034504 21 41 9.7 16.1 0.00 0.00 0.00 78 1011.7
20260508034403 21 39 9.7 16.1 0.00 0.00 0.00 78 1012.0
20260508034303 21 55 9.7 16.1 0.00 0.00 0.00 78 1012.0
20260508034202 21 48 9.7 14.5 0.00 0.00 0.00 79 1012.0
20260508034102 21 59 9.7 14.5 0.00 0.00 0.00 79 1012.1
20260508034004 21 69 9.7 14.5 0.00 0.00 0.00 79 1012.2
20260508033903 21 68 8.0 14.5 0.00 0.00 0.00 79 1012.2
20260508033803 21 86 8.0 14.5 0.00 0.00 0.00 79 1012.1
20260508033701 21 82 8.0 14.5 0.00 0.00 0.00 79 1012.0
20260508033601 21 52 8.0 14.5 0.00 0.00 0.00 79 1012.0
20260508033503 21 62 8.0 14.5 0.00 0.00 0.00 79 1012.0
20260508033402 21 54 8.0 14.5 0.00 0.00 0.00 79 1012.0
20260508033303 21 62 8.0 11.3 0.00 0.00 0.00 79 1012.1
20260508033203 21 48 6.4 9.7 0.00 0.00 0.00 79 1012.1
20260508033104 21 62 6.4 9.7 0.00 0.00 0.00 79 1012.0
20260508033002 21 48 4.8 9.7 0.00 0.00 0.00 79 1012.2
20260508032901 21 42 4.8 9.7 0.00 0.00 0.00 79 1012.0
20260508032757 21 35 4.8 11.3 0.00 0.00 0.00 79 1012.0
20260508032657 21 41 3.2 11.3 0.00 0.00 0.00 79 1012.1
20260508032556 21 34 4.8 11.3 0.00 0.00 0.00 79 1012.0
20260508032454 21 56 4.8 11.3 0.00 0.00 0.00 78 1012.1
20260508032351 21 68 6.4 11.3 0.00 0.00 0.00 78 1012.1
20260508032250 21 42 6.4 11.3 0.00 0.00 0.00 78 1012.1
20260508032149 21 39 6.4 17.7 0.00 0.00 0.00 78 1012.1
20260508032049 21 65 8.0 17.7 0.00 0.00 0.00 78 1012.1
20260508031947 21 52 6.4 17.7 0.00 0.00 0.00 78 1012.1
20260508031846 21 21 6.4 17.7 0.00 0.00 0.00 78 1012.1
20260508031743 21 63 6.4 17.7 0.00 0.00 0.00 78 1012.1
20260508031643 21 28 6.4 17.7 0.00 0.00 0.00 78 1012.1
20260508031540 21 52 8.0 17.7 0.00 0.00 0.00 78 1012.1
20260508031440 21 49 8.0 17.7 0.00 0.00 0.00 78 1012.1
20260508031337 21 27 11.3 17.7 0.00 0.00 0.00 78 1012.1
20260508031236 21 30 9.7 17.7 0.00 0.00 0.00 78 1012.2
20260508031135 21 23 8.0 16.1 0.00 0.00 0.00 78 1012.1
20260508031031 21 10 9.7 16.1 0.00 0.00 0.00 77 1012.2
20260508030933 21 52 9.7 16.1 0.00 0.00 0.00 77 1012.2
20260508030831 21 0 8.0 16.1 0.00 0.00 0.00 77 1012.3
20260508030731 21 14 9.7 16.1 0.00 0.00 0.00 77 1012.3
20260508030632 21 30 9.7 16.1 0.00 0.00 0.00 77 1012.3
20260508030531 21 32 6.4 14.5 0.00 0.00 0.00 77 1012.3
20260508030431 21 0 6.4 14.5 0.00 0.00 0.00 77 1012.3
20260508030332 21 11 8.0 14.5 0.00 0.00 0.00 77 1012.3
20260508030231 21 14 11.3 14.5 0.00 0.00 0.00 77 1012.3
20260508030133 21 14 6.4 11.3 0.00 0.00 0.00 77 1012.3
20260508030028 21 14 6.4 11.3 0.00 0.00 0.00 77 1012.3
20260508025904 21 14 6.4 11.3 0.00 0.00 0.00 77 1012.4
20260508025802 21 14 6.4 9.7 0.00 0.00 0.00 77 1012.4
20260508025703 21 13 4.8 9.7 0.00 0.00 0.00 76 1012.4
20260508025603 21 0 6.4 9.7 0.00 0.00 0.00 76 1012.4
20260508025505 21 358 4.8 9.7 0.00 0.00 0.00 76 1012.5
20260508025404 21 358 4.8 11.3 0.00 0.00 0.00 76 1012.5
20260508025305 21 358 4.8 14.5 0.00 0.00 0.00 76 1012.4
20260508025203 21 358 4.8 14.5 0.00 0.00 0.00 76 1012.4
20260508025102 21 358 4.8 14.5 0.00 0.00 0.00 76 1012.3
20260508025004 21 23 4.8 14.5 0.00 0.00 0.00 76 1012.3
20260508024902 21 27 4.8 14.5 0.00 0.00 0.00 76 1012.3
20260508024803 21 13 4.8 14.5 0.00 0.00 0.00 76 1012.2
20260508024703 21 14 4.8 14.5 0.00 0.00 0.00 76 1012.1
20260508024603 21 20 6.4 14.5 0.00 0.00 0.00 76 1012.0
20260508024503 21 25 9.7 14.5 0.00 0.00 0.00 76 1012.0
20260508024402 21 42 9.7 14.5 0.00 0.00 0.00 76 1011.9
20260508024304 22 8 8.0 14.5 0.00 0.00 0.00 76 1011.9
20260508024202 22 47 6.4 11.3 0.00 0.00 0.00 76 1012.0
20260508024102 22 17 8.0 11.3 0.00 0.00 0.00 76 1012.0
20260508024004 22 20 8.0 11.3 0.00 0.00 0.00 76 1012.0
20260508023903 22 21 6.4 11.3 0.00 0.00 0.00 76 1012.0
20260508023801 22 38 6.4 11.3 0.00 0.00 0.00 76 1012.1
20260508023704 22 23 6.4 11.3 0.00 0.00 0.00 76 1012.1
20260508023602 22 20 8.0 11.3 0.00 0.00 0.00 76 1012.1
20260508023502 22 28 8.0 11.3 0.00 0.00 0.00 76 1012.0
20260508023402 22 27 4.8 11.3 0.00 0.00 0.00 76 1012.0
20260508023302 22 28 6.4 11.3 0.00 0.00 0.00 76 1011.9
20260508023203 22 14 8.0 11.3 0.00 0.00 0.00 76 1011.8
20260508023103 22 18 8.0 11.3 0.00 0.00 0.00 76 1011.8
20260508023003 22 20 6.4 11.3 0.00 0.00 0.00 76 1012.0
20260508022902 22 25 6.4 9.7 0.00 0.00 0.00 76 1011.9
20260508022803 22 10 8.0 9.7 0.00 0.00 0.00 76 1012.0
20260508022702 22 0 8.0 9.7 0.00 0.00 0.00 76 1011.9
20260508022603 22 37 6.4 9.7 0.00 0.00 0.00 76 1012.0
20260508022503 22 21 6.4 8.0 0.00 0.00 0.00 76 1012.0
20260508022402 22 14 4.8 8.0 0.00 0.00 0.00 76 1012.0
20260508022307 22 8 3.2 8.0 0.00 0.00 0.00 76 1012.1
20260508022203 22 0 3.2 8.0 0.00 0.00 0.00 76 1012.1
20260508022103 22 0 4.8 8.0 0.00 0.00 0.00 76 1012.1
20260508022004 22 0 4.8 8.0 0.00 0.00 0.00 76 1012.2
20260508021903 22 0 4.8 9.7 0.00 0.00 0.00 76 1012.2
20260508021804 22 0 4.8 9.7 0.00 0.00 0.00 76 1012.2
20260508021703 22 0 4.8 9.7 0.00 0.00 0.00 76 1012.2
20260508021603 22 0 4.8 9.7 0.00 0.00 0.00 75 1012.1
20260508021502 22 358 4.8 9.7 0.00 0.00 0.00 76 1012.1
20260508021402 22 0 4.8 9.7 0.00 0.00 0.00 75 1012.0
20260508021303 22 0 6.4 9.7 0.00 0.00 0.00 75 1012.1
20260508021203 22 0 4.8 9.7 0.00 0.00 0.00 75 1012.1
20260508021103 22 355 6.4 9.7 0.00 0.00 0.00 75 1012.1
20260508021002 22 358 6.4 9.7 0.00 0.00 0.00 75 1012.1
20260508020904 22 358 6.4 9.7 0.00 0.00 0.00 75 1012.1
20260508020802 22 357 6.4 8.0 0.00 0.00 0.00 75 1012.0
20260508020701 22 0 4.8 8.0 0.00 0.00 0.00 75 1012.0
20260508020603 22 8 4.8 8.0 0.00 0.00 0.00 75 1011.9
20260508020504 22 3 4.8 8.0 0.00 0.00 0.00 75 1011.9
20260508020401 22 1 6.4 8.0 0.00 0.00 0.00 75 1011.9
20260508020303 22 3 4.8 8.0 0.00 0.00 0.00 75 1011.9
20260508020203 22 6 3.2 6.4 0.00 0.00 0.00 76 1012.0
20260508020002 22 354 3.2 8.0 0.00 0.00 0.00 75 1012.0
20260508015903 22 354 3.2 8.0 0.00 0.00 0.00 76 1012.0
20260508015803 22 354 3.2 8.0 0.00 0.00 0.00 76 1012.0
20260508015702 22 354 4.8 8.0 0.00 0.00 0.00 76 1011.9
20260508015603 22 353 4.8 8.0 0.00 0.00 0.00 76 1011.9
20260508015504 22 331 4.8 8.0 0.00 0.00 0.00 76 1011.8
20260508015403 22 4 4.8 8.0 0.00 0.00 0.00 76 1011.8
20260508015305 22 4 4.8 8.0 0.00 0.00 0.00 76 1011.8
20260508015203 22 4 4.8 8.0 0.00 0.00 0.00 76 1011.7
20260508015102 22 1 3.2 6.4 0.00 0.00 0.00 75 1011.7
20260508015004 22 0 3.2 6.4 0.00 0.00 0.00 75 1011.7
20260508014903 22 0 3.2 6.4 0.00 0.00 0.00 75 1011.7
20260508014802 22 0 3.2 6.4 0.00 0.00 0.00 75 1011.8
20260508014703 22 1 3.2 6.4 0.00 0.00 0.00 75 1011.8
20260508014604 22 3 4.8 6.4 0.00 0.00 0.00 75 1011.8
20260508014504 22 3 4.8 6.4 0.00 0.00 0.00 75 1011.8
20260508014402 22 3 4.8 6.4 0.00 0.00 0.00 75 1011.8
20260508014303 22 3 4.8 6.4 0.00 0.00 0.00 75 1011.7
20260508014203 22 3 4.8 6.4 0.00 0.00 0.00 75 1011.8
20260508014103 22 4 4.8 6.4 0.00 0.00 0.00 75 1011.7
20260508014003 22 4 3.2 6.4 0.00 0.00 0.00 75 1011.7
20260508013902 22 3 4.8 9.7 0.00 0.00 0.00 75 1011.7
20260508013802 22 4 4.8 9.7 0.00 0.00 0.00 75 1011.7
20260508013704 22 0 4.8 9.7 0.00 0.00 0.00 75 1011.8
20260508013602 22 0 4.8 9.7 0.00 0.00 0.00 74 1011.8
20260508013502 22 0 4.8 9.7 0.00 0.00 0.00 75 1011.8
20260508013402 22 0 3.2 9.7 0.00 0.00 0.00 74 1011.8
20260508013302 22 0 3.2 11.3 0.00 0.00 0.00 75 1011.8
20260508013203 22 0 3.2 11.3 0.00 0.00 0.00 74 1011.7
20260508013103 22 38 4.8 11.3 0.00 0.00 0.00 75 1011.7
20260508013004 22 54 6.4 11.3 0.00 0.00 0.00 75 1011.6
20260508012902 23 37 6.4 14.5 0.00 0.00 0.00 75 1011.6
20260508012803 23 25 4.8 14.5 0.00 0.00 0.00 75 1011.5
20260508012702 23 30 4.8 14.5 0.00 0.00 0.00 75 1011.5
20260508012603 23 39 4.8 14.5 0.00 0.00 0.00 75 1011.5
20260508012503 23 39 6.4 14.5 0.00 0.00 0.00 75 1011.6
20260508012404 23 0 8.0 14.5 0.00 0.00 0.00 75 1011.7
20260508012306 23 42 6.4 14.5 0.00 0.00 0.00 76 1011.6
20260508012202 23 55 8.0 14.5 0.00 0.00 0.00 76 1011.6
20260508012104 23 47 8.0 14.5 0.00 0.00 0.00 76 1011.5
20260508012003 23 25 8.0 14.5 0.00 0.00 0.00 76 1011.6
20260508011902 23 31 6.4 9.7 0.00 0.00 0.00 75 1011.7
20260508011804 23 34 4.8 8.0 0.00 0.00 0.00 75 1011.7
20260508011703 23 14 4.8 8.0 0.00 0.00 0.00 75 1011.7
20260508011602 23 14 4.8 9.7 0.00 0.00 0.00 75 1011.8
20260508011503 23 27 4.8 9.7 0.00 0.00 0.00 75 1011.8
20260508011403 23 20 6.4 11.3 0.00 0.00 0.00 75 1011.8
20260508011302 23 18 4.8 11.3 0.00 0.00 0.00 75 1011.8
20260508011202 23 17 4.8 11.3 0.00 0.00 0.00 75 1011.8
20260508011103 23 7 4.8 14.5 0.00 0.00 0.00 75 1011.8
20260508011002 23 24 4.8 14.5 0.00 0.00 0.00 75 1011.8
20260508010902 23 0 4.8 14.5 0.00 0.00 0.00 75 1011.8
20260508010803 23 348 6.4 14.5 0.00 0.00 0.00 74 1011.7
20260508010702 23 0 4.8 14.5 0.00 0.00 0.00 75 1011.7
20260508010602 23 38 4.8 17.7 0.00 0.00 0.00 75 1011.7
20260508010502 23 38 6.4 17.7 0.00 0.00 0.00 75 1011.7
20260508010402 23 24 6.4 17.7 0.00 0.00 0.00 75 1011.8
20260508010302 23 6 8.0 17.7 0.00 0.00 0.00 75 1011.8
20260508010202 23 0 8.0 17.7 0.00 0.00 0.00 75 1011.8
20260508010002 23 351 4.8 17.7 0.00 0.00 0.00 75 1011.7
20260508005902 23 0 6.4 17.7 0.00 0.00 0.00 75 1011.7
20260508005801 23 13 8.0 17.7 0.00 0.00 0.00 75 1011.7
20260508005702 23 13 8.0 17.7 0.00 0.00 0.00 75 1011.7
20260508005602 23 18 6.4 11.3 0.00 0.00 0.00 75 1011.6
20260508005503 23 11 4.8 11.3 0.00 0.00 0.00 75 1011.6
20260508005402 23 17 6.4 11.3 0.00 0.00 0.00 74 1011.5
20260508005305 23 10 8.0 11.3 0.00 0.00 0.00 74 1011.5
20260508005202 23 11 8.0 11.3 0.00 0.00 0.00 74 1011.5
20260508005104 23 17 6.4 11.3 0.00 0.00 0.00 74 1011.6
20260508005004 23 0 6.4 11.3 0.00 0.00 0.00 74 1011.5
20260508004903 23 0 8.0 11.3 0.00 0.00 0.00 74 1011.5
20260508004802 23 13 8.0 11.3 0.00 0.00 0.00 74 1011.6
20260508004701 23 3 8.0 11.3 0.00 0.00 0.00 74 1011.7
20260508004602 23 0 8.0 11.3 0.00 0.00 0.00 74 1011.6
20260508004502 23 13 6.4 11.3 0.00 0.00 0.00 75 1011.6
20260508004403 23 10 6.4 11.3 0.00 0.00 0.00 75 1011.6
20260508004303 23 30 4.8 11.3 0.00 0.00 0.00 75 1011.6
20260508004202 23 0 4.8 11.3 0.00 0.00 0.00 75 1011.6
20260508004103 23 354 4.8 11.3 0.00 0.00 0.00 75 1011.7
20260508004005 23 7 4.8 11.3 0.00 0.00 0.00 75 1011.7
20260508003903 23 24 4.8 11.3 0.00 0.00 0.00 75 1011.6
20260508003803 23 0 6.4 11.3 0.00 0.00 0.00 75 1011.6
20260508003703 23 0 6.4 11.3 0.00 0.00 0.00 75 1011.6
20260508003603 23 28 6.4 11.3 0.00 0.00 0.00 75 1011.6
20260508003503 23 10 6.4 11.3 0.00 0.00 0.00 75 1011.6
20260508003402 23 17 8.0 11.3 0.00 0.00 0.00 75 1011.6
20260508003304 23 17 9.7 11.3 0.00 0.00 0.00 75 1011.6
20260508003201 23 0 8.0 11.3 0.00 0.00 0.00 75 1011.7
20260508003103 23 353 6.4 11.3 0.00 0.00 0.00 75 1011.7
20260508003006 23 1 6.4 9.7 0.00 0.00 0.00 75 1011.7
20260508002904 23 343 4.8 14.5 0.00 0.00 0.00 75 1011.8
20260508002802 23 0 4.8 14.5 0.00 0.00 0.00 74 1011.8
20260508002703 23 4 4.8 14.5 0.00 0.00 0.00 74 1011.7
20260508002603 23 4 4.8 14.5 0.00 0.00 0.00 74 1011.7
20260508002504 23 4 4.8 14.5 0.00 0.00 0.00 74 1011.7
20260508002403 23 4 4.8 14.5 0.00 0.00 0.00 74 1011.6
20260508002306 23 17 6.4 14.5 0.00 0.00 0.00 74 1011.6
20260508002202 23 13 6.4 14.5 0.00 0.00 0.00 74 1011.7
20260508002102 23 10 4.8 14.5 0.00 0.00 0.00 74 1011.7
20260508002003 23 10 4.8 14.5 0.00 0.00 0.00 74 1011.7
20260508001901 23 345 6.4 9.7 0.00 0.00 0.00 74 1011.7
20260508001803 23 344 6.4 9.7 0.00 0.00 0.00 74 1011.7
20260508001704 23 0 6.4 11.3 0.00 0.00 0.00 74 1011.7
20260508001602 23 357 6.4 11.3 0.00 0.00 0.00 74 1011.6
20260508001504 23 330 6.4 14.5 0.00 0.00 0.00 74 1011.7
20260508001403 23 7 6.4 14.5 0.00 0.00 0.00 75 1011.7
20260508001303 23 354 6.4 14.5 0.00 0.00 0.00 75 1011.8
20260508001202 23 357 4.8 14.5 0.00 0.00 0.00 75 1011.8
20260508001102 23 329 4.8 14.5 0.00 0.00 0.00 75 1011.8
20260508001004 23 21 6.4 14.5 0.00 0.00 0.00 75 1011.8
20260508000902 23 13 8.0 14.5 0.00 0.00 0.00 74 1011.8
20260508000803 23 358 8.0 14.5 0.00 0.00 0.00 74 1011.8
20260508000702 23 10 9.7 14.5 0.00 0.00 0.00 74 1011.7
20260508000601 24 0 9.7 16.1 0.00 0.00 0.00 74 1011.8
20260508000503 24 24 4.8 16.1 0.00 0.00 0.00 74 1011.7
20260508000405 24 350 4.8 16.1 0.00 0.00 0.00 74 1011.7
20260508000305 24 1 6.4 17.7 0.00 0.00 0.00 74 1011.7
20260508000204 24 0 6.4 17.7 0.00 0.00 0.00 74 1011.8
20260508000003 24 0 6.4 17.7 0.00 0.00 0.00 74 1011.8
20260507235903 24 347 9.7 17.7 0.00 0.00 0.00 74 1011.9
20260507235802 24 344 9.7 17.7 0.00 0.00 0.00 74 1011.9
20260507235702 24 8 8.0 17.7 0.00 0.00 0.00 74 1011.9
20260507235604 24 334 8.0 17.7 0.00 0.00 0.00 74 1011.9
20260507235502 24 0 9.7 17.7 0.00 0.00 0.00 74 1011.9
20260507235402 24 0 11.3 17.7 0.00 0.00 0.00 74 1011.9
20260507235306 24 14 8.0 17.7 0.00 0.00 0.00 74 1011.9
20260507235203 24 340 4.8 16.1 0.00 0.00 0.00 74 1011.9
20260507235102 24 351 6.4 16.1 0.00 0.00 0.00 74 1011.9
20260507235001 24 358 6.4 16.1 0.00 0.00 0.00 74 1011.9
20260507234903 24 354 4.8 16.1 0.00 0.00 0.00 74 1011.9
20260507234802 24 10 8.0 16.1 0.00 0.00 0.00 74 1011.9
20260507234702 24 10 8.0 16.1 0.00 0.00 0.00 75 1011.9
20260507234602 24 358 6.4 14.5 0.00 0.00 0.00 75 1011.9
20260507234504 24 0 6.4 14.5 0.00 0.00 0.00 75 1011.8
20260507234401 24 358 8.0 14.5 0.00 0.00 0.00 74 1011.8
20260507234302 24 350 6.4 14.5 0.00 0.00 0.00 75 1011.8
20260507234203 24 11 3.2 16.1 0.00 0.00 0.00 75 1011.7
20260507234102 24 0 4.8 16.1 0.00 0.00 0.00 75 1011.7
20260507234002 24 0 4.8 16.1 0.00 0.00 0.00 75 1011.7
20260507233903 24 3 6.4 16.1 0.00 0.00 0.00 75 1011.7
20260507233802 24 4 6.4 16.1 0.00 0.00 0.00 74 1011.6
20260507233702 24 10 6.4 16.1 0.00 0.00 0.00 74 1011.7
20260507233603 24 6 8.0 16.1 0.00 0.00 0.00 74 1011.6
20260507233504 25 21 8.0 16.1 0.00 0.00 0.00 73 1011.6
20260507233402 25 24 9.7 16.1 0.00 0.00 0.00 73 1011.6
20260507233302 25 20 6.4 16.1 0.00 0.00 0.00 73 1011.5
20260507233203 25 7 3.2 14.5 0.00 0.00 0.00 73 1011.5
20260507233103 25 10 4.8 14.5 0.00 0.00 0.00 73 1011.5
20260507233002 25 10 6.4 16.1 0.00 0.00 0.00 73 1011.6
20260507232903 25 7 6.4 16.1 0.00 0.00 0.00 72 1011.5
20260507232804 25 13 6.4 16.1 0.00 0.00 0.00 72 1011.5
20260507232703 25 4 6.4 16.1 0.00 0.00 0.00 72 1011.5
20260507232602 25 6 9.7 16.1 0.00 0.00 0.00 72 1011.5
20260507232503 25 28 9.7 16.1 0.00 0.00 0.00 72 1011.6
20260507232402 25 32 9.7 16.1 0.00 0.00 0.00 72 1011.6
20260507232258 25 25 8.0 16.1 0.00 0.00 0.00 72 1011.6
20260507232159 25 28 8.0 16.1 0.00 0.00 0.00 72 1011.6
20260507232057 25 13 6.4 17.7 0.00 0.00 0.00 72 1011.6
20260507231955 25 23 6.4 17.7 0.00 0.00 0.00 72 1011.5
20260507231855 25 23 9.7 17.7 0.00 0.00 0.00 72 1011.5
20260507231752 25 25 9.7 20.9 0.00 0.00 0.00 72 1011.4
20260507231651 25 37 8.0 20.9 0.00 0.00 0.00 71 1011.3
20260507231549 25 32 9.7 20.9 0.00 0.00 0.00 71 1011.4
20260507231447 25 27 9.7 20.9 0.00 0.00 0.00 72 1011.4
20260507231348 25 14 11.3 20.9 0.00 0.00 0.00 72 1011.3
20260507231244 25 21 9.7 20.9 0.00 0.00 0.00 72 1011.3
20260507231143 25 39 9.7 20.9 0.00 0.00 0.00 71 1011.3
20260507231043 25 30 11.3 20.9 0.00 0.00 0.00 72 1011.3
20260507230939 25 25 12.9 20.9 0.00 0.00 0.00 72 1011.3
20260507230839 25 17 11.3 20.9 0.00 0.00 0.00 72 1011.3
20260507230737 25 20 9.7 16.1 0.00 0.00 0.00 72 1011.4
20260507230632 25 31 9.7 14.5 0.00 0.00 0.00 72 1011.3
20260507230531 25 23 9.7 14.5 0.00 0.00 0.00 73 1011.4
20260507230432 25 10 9.7 14.5 0.00 0.00 0.00 72 1011.4
20260507230331 25 28 9.7 14.5 0.00 0.00 0.00 72 1011.4
20260507230233 25 10 11.3 14.5 0.00 0.00 0.00 72 1011.4
20260507230131 25 10 11.3 14.5 0.00 0.00 0.00 72 1011.4
20260507230031 25 17 11.3 14.5 0.00 0.00 0.00 72 1011.3
20260507225931 25 8 11.3 14.5 0.00 0.00 0.00 72 1011.2
20260507225832 25 10 8.0 14.5 0.00 0.00 0.00 72 1011.3
20260507225733 25 16 6.4 14.5 0.00 0.00 0.00 73 1011.2
20260507225633 25 16 6.4 14.5 0.00 0.00 0.00 73 1011.2
20260507225530 25 21 6.4 14.5 0.00 0.00 0.00 73 1011.2
20260507225430 25 0 4.8 16.1 0.00 0.00 0.00 73 1011.3
20260507225331 25 0 4.8 16.1 0.00 0.00 0.00 73 1011.1
20260507225232 25 0 4.8 16.1 0.00 0.00 0.00 73 1011.1
20260507225131 25 0 8.0 16.1 0.00 0.00 0.00 73 1011.1
20260507225032 25 7 8.0 16.1 0.00 0.00 0.00 72 1011.0
20260507224931 25 13 8.0 16.1 0.00 0.00 0.00 73 1011.1
20260507224830 25 0 9.7 16.1 0.00 0.00 0.00 72 1011.0
20260507224732 25 10 9.7 16.1 0.00 0.00 0.00 73 1011.1
20260507224631 25 14 11.3 16.1 0.00 0.00 0.00 73 1011.1
20260507224531 25 3 9.7 16.1 0.00 0.00 0.00 73 1011.0
20260507224429 25 17 6.4 14.5 0.00 0.00 0.00 73 1011.0
20260507224330 25 10 6.4 9.7 0.00 0.00 0.00 73 1011.0
20260507224226 25 10 6.4 9.7 0.00 0.00 0.00 73 1011.1
20260507224126 25 7 4.8 9.7 0.00 0.00 0.00 73 1011.1
20260507224023 25 10 4.8 9.7 0.00 0.00 0.00 73 1011.0
20260507223922 25 13 6.4 9.7 0.00 0.00 0.00 73 1011.1
20260507223821 25 17 8.0 9.7 0.00 0.00 0.00 73 1011.1
20260507223721 25 0 6.4 11.3 0.00 0.00 0.00 73 1011.2
20260507223621 25 6 4.8 11.3 0.00 0.00 0.00 73 1011.2
20260507223521 25 0 4.8 11.3 0.00 0.00 0.00 73 1011.2
20260507223420 25 7 6.4 11.3 0.00 0.00 0.00 72 1011.2
20260507223320 25 20 6.4 11.3 0.00 0.00 0.00 72 1011.1
20260507223220 25 21 6.4 11.3 0.00 0.00 0.00 72 1011.2
20260507223120 25 21 6.4 11.3 0.00 0.00 0.00 72 1011.1
20260507223020 25 24 4.8 11.3 0.00 0.00 0.00 72 1011.2
20260507222921 25 34 6.4 11.3 0.00 0.00 0.00 72 1011.1
20260507222821 25 37 8.0 14.5 0.00 0.00 0.00 72 1011.2
20260507222720 25 35 8.0 14.5 0.00 0.00 0.00 72 1011.1
20260507222622 25 25 8.0 16.1 0.00 0.00 0.00 72 1011.1
20260507222520 25 34 9.7 16.1 0.00 0.00 0.00 72 1011.1
20260507222420 25 28 6.4 16.1 0.00 0.00 0.00 73 1011.2
20260507222320 25 8 6.4 16.1 0.00 0.00 0.00 72 1011.2
20260507222222 25 21 6.4 16.1 0.00 0.00 0.00 72 1011.2
20260507222120 25 17 6.4 16.1 0.00 0.00 0.00 73 1011.2
20260507222020 25 18 9.7 16.1 0.00 0.00 0.00 73 1011.3
20260507221922 25 25 9.7 16.1 0.00 0.00 0.00 72 1011.3
20260507221820 25 21 9.7 16.1 0.00 0.00 0.00 72 1011.3
20260507221720 25 27 8.0 16.1 0.00 0.00 0.00 73 1011.3
20260507221620 25 10 4.8 11.3 0.00 0.00 0.00 73 1011.3
20260507221522 25 18 6.4 11.3 0.00 0.00 0.00 73 1011.2
20260507221420 25 11 6.4 14.5 0.00 0.00 0.00 72 1011.3
20260507221320 25 18 6.4 14.5 0.00 0.00 0.00 72 1011.2
20260507221221 25 13 4.8 14.5 0.00 0.00 0.00 71 1011.2
20260507221121 25 1 3.2 14.5 0.00 0.00 0.00 71 1011.4
20260507221019 25 0 3.2 14.5 0.00 0.00 0.00 71 1011.3
20260507220920 25 0 4.8 14.5 0.00 0.00 0.00 71 1011.3
20260507220821 25 0 4.8 14.5 0.00 0.00 0.00 71 1011.4
20260507220720 25 0 6.4 14.5 0.00 0.00 0.00 71 1011.4
20260507220620 25 0 9.7 14.5 0.00 0.00 0.00 71 1011.4
20260507220521 25 23 8.0 16.1 0.00 0.00 0.00 71 1011.5
20260507220420 25 28 6.4 16.1 0.00 0.00 0.00 71 1011.5
20260507220319 25 17 4.8 16.1 0.00 0.00 0.00 71 1011.5
20260507220221 25 17 6.4 16.1 0.00 0.00 0.00 71 1011.5
20260507220121 25 17 6.4 16.1 0.00 0.00 0.00 71 1011.4
20260507220020 25 13 6.4 16.1 0.00 0.00 0.00 71 1011.5
20260507215920 25 32 8.0 16.1 0.00 0.00 0.00 71 1011.5
20260507215820 25 23 6.4 16.1 0.00 0.00 0.00 71 1011.5
20260507215719 25 18 8.0 16.1 0.00 0.00 0.00 71 1011.4
20260507215619 25 17 8.0 16.1 0.00 0.00 0.00 71 1011.4
20260507215520 25 14 6.4 14.5 0.00 0.00 0.00 71 1011.4
20260507215421 25 14 4.8 14.5 0.00 0.00 0.00 70 1011.4
20260507215319 25 216 4.8 14.5 0.00 0.00 0.00 70 1011.5
20260507215219 26 224 4.8 14.5 0.00 0.00 0.00 70 1011.4
20260507215120 25 0 4.8 14.5 0.00 0.00 0.00 70 1011.6
20260507215019 25 0 4.8 14.5 0.00 0.00 0.00 71 1011.6
20260507214919 25 0 6.4 14.5 0.00 0.00 0.00 71 1011.6
20260507214819 25 8 8.0 14.5 0.00 0.00 0.00 70 1011.7
20260507214720 25 17 8.0 14.5 0.00 0.00 0.00 71 1011.6
20260507214620 25 21 4.8 14.5 0.00 0.00 0.00 72 1011.7
20260507214520 25 8 6.4 14.5 0.00 0.00 0.00 72 1011.7
20260507214421 25 13 6.4 14.5 0.00 0.00 0.00 72 1011.7
20260507214321 25 41 8.0 14.5 0.00 0.00 0.00 72 1011.7
20260507214220 25 27 8.0 14.5 0.00 0.00 0.00 71 1011.7
20260507214120 25 35 8.0 14.5 0.00 0.00 0.00 71 1011.6
20260507214019 25 38 9.7 14.5 0.00 0.00 0.00 71 1011.6
20260507213919 25 23 9.7 14.5 0.00 0.00 0.00 72 1011.8
20260507213820 25 21 8.0 16.1 0.00 0.00 0.00 71 1011.7
20260507213720 25 14 6.4 16.1 0.00 0.00 0.00 71 1011.8
20260507213620 25 11 8.0 16.1 0.00 0.00 0.00 71 1011.7
20260507213521 25 11 8.0 17.7 0.00 0.00 0.00 71 1011.7
20260507213420 25 0 8.0 17.7 0.00 0.00 0.00 71 1011.7
20260507213319 25 4 4.8 17.7 0.00 0.00 0.00 71 1011.7
20260507213219 25 8 4.8 17.7 0.00 0.00 0.00 71 1011.6
20260507213119 25 27 6.4 17.7 0.00 0.00 0.00 70 1011.7
20260507213020 25 18 8.0 17.7 0.00 0.00 0.00 70 1011.6
20260507212919 25 27 9.7 17.7 0.00 0.00 0.00 71 1011.7
20260507212820 25 52 8.0 17.7 0.00 0.00 0.00 71 1011.7
20260507212720 25 31 8.0 17.7 0.00 0.00 0.00 70 1011.7
20260507212621 25 347 8.0 17.7 0.00 0.00 0.00 69 1011.6
20260507212519 26 4 6.4 14.5 0.00 0.00 0.00 68 1011.6
20260507212419 26 0 6.4 14.5 0.00 0.00 0.00 68 1011.6
20260507212320 26 7 6.4 14.5 0.00 0.00 0.00 68 1011.6
20260507212218 26 357 6.4 16.1 0.00 0.00 0.00 67 1011.6
20260507212118 26 351 4.8 16.1 0.00 0.00 0.00 68 1011.7
20260507212019 26 4 4.8 16.1 0.00 0.00 0.00 68 1011.7
20260507211919 26 4 3.2 16.1 0.00 0.00 0.00 68 1011.7
20260507211820 26 4 4.8 16.1 0.00 0.00 0.00 70 1011.6
20260507211719 26 32 4.8 19.3 0.00 0.00 0.00 70 1011.7
20260507211621 26 17 6.4 19.3 0.00 0.00 0.00 71 1011.7
20260507211519 25 20 8.0 19.3 0.00 0.00 0.00 71 1011.7
20260507211418 25 51 9.7 19.3 0.00 0.00 0.00 70 1011.8
20260507211320 26 32 11.3 19.3 0.00 0.00 0.00 69 1011.8
20260507211219 26 51 9.7 19.3 0.00 0.00 0.00 69 1011.7
20260507211118 26 31 11.3 20.9 0.00 0.00 0.00 69 1011.8
20260507211018 26 30 11.3 20.9 0.00 0.00 0.00 69 1011.8
20260507210919 26 21 11.3 20.9 0.00 0.00 0.00 69 1011.8
20260507210818 26 25 11.3 20.9 0.00 0.00 0.00 69 1011.8
20260507210718 26 37 6.4 20.9 0.00 0.00 0.00 70 1011.7
20260507210620 25 27 6.4 20.9 0.00 0.00 0.00 69 1011.8
20260507210519 25 28 8.0 20.9 0.00 0.00 0.00 69 1011.8
20260507210418 25 25 9.7 20.9 0.00 0.00 0.00 70 1011.8
20260507210319 25 35 12.9 20.9 0.00 0.00 0.00 70 1011.9
20260507210220 26 6 11.3 20.9 0.00 0.00 0.00 70 1011.9
20260507210118 26 11 8.0 16.1 0.00 0.00 0.00 69 1011.9
20260507210019 26 45 9.7 16.1 0.00 0.00 0.00 69 1011.9
20260507205919 26 3 9.7 16.1 0.00 0.00 0.00 69 1011.9
20260507205819 26 20 8.0 17.7 0.00 0.00 0.00 70 1011.9
20260507205718 25 4 8.0 19.3 0.00 0.00 0.00 71 1012.0
20260507205619 25 20 9.7 19.3 0.00 0.00 0.00 69 1011.9
20260507205518 25 31 9.7 19.3 0.00 0.00 0.00 70 1011.8
20260507205419 26 23 8.0 19.3 0.00 0.00 0.00 70 1011.8
20260507205318 25 45 8.0 19.3 0.00 0.00 0.00 70 1011.8
20260507205219 26 45 8.0 19.3 0.00 0.00 0.00 69 1011.9
20260507205118 26 11 8.0 19.3 0.00 0.00 0.00 69 1011.9
20260507205018 26 0 9.7 19.3 0.00 0.00 0.00 70 1011.9
20260507204919 26 20 12.9 19.3 0.00 0.00 0.00 69 1011.8
20260507204818 26 21 11.3 19.3 0.00 0.00 0.00 70 1011.9
20260507204719 26 16 9.7 22.5 0.00 0.00 0.00 70 1012.0
20260507204618 26 41 12.9 22.5 0.00 0.00 0.00 69 1011.9
20260507204521 26 39 11.3 22.5 0.00 0.00 0.00 69 1012.0
20260507204419 26 44 8.0 22.5 0.00 0.00 0.00 70 1012.1
20260507204319 25 0 9.7 22.5 0.00 0.00 0.00 70 1012.0
20260507204219 25 25 11.3 22.5 0.00 0.00 0.00 70 1012.1
20260507204119 26 320 11.3 22.5 0.00 0.00 0.00 69 1012.0
20260507204018 26 3 11.3 22.5 0.00 0.00 0.00 69 1012.0
20260507203916 26 4 12.9 22.5 0.00 0.00 0.00 69 1012.0
20260507203815 26 1 12.9 22.5 0.00 0.00 0.00 69 1012.0
20260507203714 26 350 8.0 17.7 0.00 0.00 0.00 71 1012.0
20260507203611 26 24 4.8 17.7 0.00 0.00 0.00 71 1011.9
20260507203510 25 358 4.8 17.7 0.00 0.00 0.00 70 1011.9
20260507203409 25 24 6.4 17.7 0.00 0.00 0.00 70 1011.9
20260507203307 25 344 6.4 17.7 0.00 0.00 0.00 71 1011.9
20260507203207 25 357 6.4 17.7 0.00 0.00 0.00 71 1011.9
20260507203104 25 20 8.0 17.7 0.00 0.00 0.00 71 1012.0
20260507203003 25 341 11.3 17.7 0.00 0.00 0.00 71 1012.0
20260507202903 25 30 12.9 17.7 0.00 0.00 0.00 71 1012.1
20260507202802 25 357 9.7 17.7 0.00 0.00 0.00 71 1012.1
20260507202702 25 7 9.7 17.7 0.00 0.00 0.00 71 1012.1
20260507202602 25 11 11.3 17.7 0.00 0.00 0.00 70 1012.2
20260507202502 25 0 9.7 16.1 0.00 0.00 0.00 71 1012.3
20260507202403 25 3 8.0 16.1 0.00 0.00 0.00 71 1012.3
20260507202306 25 357 8.0 16.1 0.00 0.00 0.00 72 1012.3
20260507202202 25 34 8.0 16.1 0.00 0.00 0.00 72 1012.3
20260507202103 25 13 9.7 17.7 0.00 0.00 0.00 71 1012.3
20260507202004 25 17 9.7 17.7 0.00 0.00 0.00 71 1012.2
20260507201901 25 24 8.0 17.7 0.00 0.00 0.00 71 1012.2
20260507201801 25 17 6.4 17.7 0.00 0.00 0.00 70 1012.2
20260507201703 25 13 4.8 17.7 0.00 0.00 0.00 71 1012.1
20260507201601 25 54 4.8 17.7 0.00 0.00 0.00 69 1012.2
20260507201501 25 65 4.8 17.7 0.00 0.00 0.00 70 1012.2
20260507201358 25 11 8.0 17.7 0.00 0.00 0.00 69 1012.2
20260507201257 26 21 12.9 17.7 0.00 0.00 0.00 68 1012.2
20260507201155 26 44 11.3 17.7 0.00 0.00 0.00 68 1012.2
20260507201055 26 25 8.0 19.3 0.00 0.00 0.00 69 1012.3
20260507200952 26 61 8.0 19.3 0.00 0.00 0.00 69 1012.2
20260507200850 26 32 6.4 19.3 0.00 0.00 0.00 69 1012.3
20260507200749 26 47 6.4 19.3 0.00 0.00 0.00 69 1012.3
20260507200647 26 41 9.7 25.7 0.00 0.00 0.00 69 1012.3
20260507200545 26 47 6.4 25.7 0.00 0.00 0.00 71 1012.3
20260507200441 25 23 4.8 25.7 0.00 0.00 0.00 70 1012.3
20260507200340 25 71 8.0 25.7 0.00 0.00 0.00 70 1012.3
20260507200238 25 39 9.7 25.7 0.00 0.00 0.00 70 1012.3
20260507200136 25 32 9.7 25.7 0.00 0.00 0.00 71 1012.3
20260507200036 25 3 11.3 25.7 0.00 0.00 0.00 70 1012.2
20260507195933 25 21 11.3 25.7 0.00 0.00 0.00 70 1012.2
20260507195830 25 20 14.5 25.7 0.00 0.00 0.00 70 1012.2
20260507195731 25 25 12.9 25.7 0.00 0.00 0.00 70 1012.3
20260507195632 25 25 8.0 22.5 0.00 0.00 0.00 70 1012.3
20260507195531 25 56 8.0 22.5 0.00 0.00 0.00 70 1012.3
20260507195430 25 42 9.7 22.5 0.00 0.00 0.00 71 1012.3
20260507195332 25 76 11.3 22.5 0.00 0.00 0.00 71 1012.4
20260507195232 25 13 14.5 22.5 0.00 0.00 0.00 71 1012.3
20260507195131 25 61 14.5 22.5 0.00 0.00 0.00 70 1012.4
20260507195031 25 34 11.3 22.5 0.00 0.00 0.00 69 1012.4
20260507194932 25 85 11.3 22.5 0.00 0.00 0.00 70 1012.4
20260507194832 25 10 12.9 22.5 0.00 0.00 0.00 69 1012.5
20260507194730 25 6 12.9 22.5 0.00 0.00 0.00 69 1012.5
20260507194631 25 0 9.7 17.7 0.00 0.00 0.00 70 1012.4
20260507194531 25 7 6.4 17.7 0.00 0.00 0.00 70 1012.5
20260507194431 25 17 6.4 22.5 0.00 0.00 0.00 71 1012.5
20260507194329 25 0 8.0 22.5 0.00 0.00 0.00 71 1012.6
20260507194226 25 18 9.7 22.5 0.00 0.00 0.00 71 1012.6
20260507194125 25 39 9.7 22.5 0.00 0.00 0.00 70 1012.6
20260507194024 25 0 8.0 22.5 0.00 0.00 0.00 70 1012.6
20260507193923 25 14 9.7 22.5 0.00 0.00 0.00 71 1012.6
20260507193817 25 21 9.7 22.5 0.00 0.00 0.00 72 1012.6
20260507193717 25 7 11.3 22.5 0.00 0.00 0.00 73 1012.7
20260507193616 24 14 14.5 22.5 0.00 0.00 0.00 73 1012.7
20260507193516 24 30 11.3 22.5 0.00 0.00 0.00 73 1012.6
20260507193417 24 0 9.7 22.5 0.00 0.00 0.00 72 1012.7
20260507193316 24 0 11.3 22.5 0.00 0.00 0.00 71 1012.8
20260507193217 24 0 6.4 22.5 0.00 0.00 0.00 71 1012.8
20260507193117 25 1 6.4 22.5 0.00 0.00 0.00 72 1012.8
20260507193017 25 0 9.7 22.5 0.00 0.00 0.00 71 1012.8
20260507192916 25 6 9.7 22.5 0.00 0.00 0.00 71 1012.9
20260507192817 25 0 11.3 22.5 0.00 0.00 0.00 71 1012.9
20260507192718 25 0 14.5 25.7 0.00 0.00 0.00 71 1012.9
20260507192616 25 14 14.5 25.7 0.00 0.00 0.00 71 1013.0
20260507192517 25 0 14.5 25.7 0.00 0.00 0.00 72 1013.1
20260507192417 24 0 12.9 25.7 0.00 0.00 0.00 74 1013.0
20260507192316 24 31 12.9 25.7 0.00 0.00 0.00 73 1013.0
20260507192217 24 18 12.9 25.7 0.00 0.00 0.00 72 1013.0
20260507192117 24 0 11.3 25.7 0.00 0.00 0.00 73 1013.1
20260507192016 24 13 11.3 25.7 0.00 0.00 0.00 73 1013.1
20260507191916 24 13 14.5 25.7 0.00 0.00 0.00 73 1013.1
20260507191818 24 8 14.5 25.7 0.00 0.00 0.00 72 1013.0
20260507191719 24 7 12.9 22.5 0.00 0.00 0.00 72 1013.1
20260507191616 24 23 14.5 22.5 0.00 0.00 0.00 72 1013.1
20260507191516 24 23 16.1 22.5 0.00 0.00 0.00 72 1013.1
20260507191416 24 16 14.5 22.5 0.00 0.00 0.00 72 1013.1
20260507191316 24 32 9.7 22.5 0.00 0.00 0.00 72 1013.1
20260507191216 24 16 6.4 19.3 0.00 0.00 0.00 73 1013.2
20260507191117 24 18 6.4 22.5 0.00 0.00 0.00 73 1013.2
20260507191015 24 0 8.0 22.5 0.00 0.00 0.00 73 1013.1
20260507190915 23 0 8.0 22.5 0.00 0.00 0.00 73 1013.3
20260507190816 23 27 12.9 22.5 0.00 0.00 0.00 73 1013.3
20260507190717 23 28 14.5 22.5 0.00 0.00 0.00 73 1013.3
20260507190617 23 31 12.9 22.5 0.00 0.00 0.00 72 1013.4
20260507190516 23 34 12.9 22.5 0.00 0.00 0.00 72 1013.3
20260507190416 24 4 12.9 22.5 0.00 0.00 0.00 73 1013.3
20260507190316 24 21 12.9 22.5 0.00 0.00 0.00 73 1013.3
20260507190215 23 20 11.3 22.5 0.00 0.00 0.00 73 1013.3
20260507190118 23 28 12.9 20.9 0.00 0.00 0.00 73 1013.2
20260507190017 23 6 14.5 20.9 0.00 0.00 0.00 73 1013.3
20260507185916 23 23 14.5 20.9 0.00 0.00 0.00 73 1013.3
20260507185815 23 18 12.9 20.9 0.00 0.00 0.00 73 1013.3
20260507185717 23 0 12.9 22.5 0.00 0.00 0.00 73 1013.2
20260507185615 23 0 12.9 22.5 0.00 0.00 0.00 73 1013.2
20260507185516 23 13 9.7 22.5 0.00 0.00 0.00 73 1013.1
20260507185416 23 3 9.7 22.5 0.00 0.00 0.00 74 1013.2
20260507185315 23 24 11.3 22.5 0.00 0.00 0.00 73 1013.1
20260507185216 23 0 11.3 22.5 0.00 0.00 0.00 73 1013.1
20260507185116 23 0 11.3 22.5 0.00 0.00 0.00 72 1013.2
20260507185016 23 0 11.3 22.5 0.00 0.00 0.00 72 1013.2
20260507184915 24 214 16.1 22.5 0.00 0.00 0.00 72 1013.2
20260507184815 24 11 14.5 22.5 0.00 0.00 0.00 72 1013.2
20260507184716 24 8 12.9 20.9 0.00 0.00 0.00 72 1013.2
20260507184615 24 0 11.3 19.3 0.00 0.00 0.00 73 1013.3
20260507184516 24 34 9.7 19.3 0.00 0.00 0.00 73 1013.3
20260507184417 24 0 6.4 19.3 0.00 0.00 0.00 73 1013.2
20260507184317 23 11 6.4 19.3 0.00 0.00 0.00 74 1013.3
20260507184215 23 24 8.0 19.3 0.00 0.00 0.00 73 1013.3
20260507184115 23 8 9.7 19.3 0.00 0.00 0.00 73 1013.4
20260507184017 23 0 11.3 19.3 0.00 0.00 0.00 73 1013.3
20260507183916 23 0 9.7 19.3 0.00 0.00 0.00 74 1013.3
20260507183816 23 0 9.7 17.7 0.00 0.00 0.00 73 1013.3
20260507183716 23 0 11.3 17.7 0.00 0.00 0.00 74 1013.3
20260507183617 23 0 12.9 17.7 0.00 0.00 0.00 73 1013.3
20260507183516 23 0 8.0 17.7 0.00 0.00 0.00 75 1013.4
20260507183415 23 11 8.0 17.7 0.00 0.00 0.00 75 1013.3
20260507183317 23 0 9.7 22.5 0.00 0.00 0.00 75 1013.4
20260507183215 23 10 8.0 22.5 0.00 0.00 0.00 75 1013.4
20260507183115 23 3 9.7 22.5 0.00 0.00 0.00 74 1013.4
20260507183016 23 10 9.7 22.5 0.00 0.00 0.00 75 1013.5
20260507182916 23 0 8.0 22.5 0.00 0.00 0.00 74 1013.5
20260507182815 23 1 9.7 22.5 0.00 0.00 0.00 74 1013.3
20260507182715 23 0 9.7 22.5 0.00 0.00 0.00 74 1013.4
20260507182617 23 0 9.7 22.5 0.00 0.00 0.00 74 1013.4
20260507182514 23 0 12.9 22.5 0.00 0.00 0.00 75 1013.4
20260507182415 23 3 12.9 22.5 0.00 0.00 0.00 74 1013.5
20260507182316 23 0 9.7 20.9 0.00 0.00 0.00 75 1013.5
20260507182216 23 1 6.4 20.9 0.00 0.00 0.00 74 1013.4
20260507182115 23 1 9.7 20.9 0.00 0.00 0.00 73 1013.5
20260507182017 23 8 11.3 20.9 0.00 0.00 0.00 73 1013.5
20260507181916 23 0 11.3 20.9 0.00 0.00 0.00 73 1013.5
20260507181815 23 3 11.3 19.3 0.00 0.00 0.00 74 1013.5
20260507181715 23 30 9.7 19.3 0.00 0.00 0.00 74 1013.5
20260507181615 23 8 8.0 19.3 0.00 0.00 0.00 74 1013.5
20260507181515 23 0 8.0 19.3 0.00 0.00 0.00 74 1013.5
20260507181416 23 0 8.0 19.3 0.00 0.00 0.00 73 1013.4
20260507181314 23 0 9.7 19.3 0.00 0.00 0.00 74 1013.6
20260507181216 23 17 11.3 19.3 0.00 0.00 0.00 74 1013.6
20260507181114 23 0 11.3 19.3 0.00 0.00 0.00 75 1013.6
20260507181015 23 0 8.0 19.3 0.00 0.00 0.00 76 1013.6
20260507180915 23 0 4.8 19.3 0.00 0.00 0.00 76 1013.6
20260507180815 23 0 6.4 19.3 0.00 0.00 0.00 75 1013.7
20260507180715 22 0 9.7 19.3 0.00 0.00 0.00 76 1013.7
20260507180615 23 0 9.7 19.3 0.00 0.00 0.00 75 1013.7
20260507180514 23 0 6.4 19.3 0.00 0.00 0.00 74 1013.7
20260507180415 23 3 9.7 19.3 0.00 0.00 0.00 74 1013.7
20260507180316 23 3 9.7 19.3 0.00 0.00 0.00 74 1013.8
20260507180216 23 3 9.7 20.9 0.00 0.00 0.00 74 1013.8
20260507180116 23 3 9.7 20.9 0.00 0.00 0.00 74 1013.8
20260507180004 23 3 9.7 20.9 0.00 0.00 0.00 74 1013.8
20260507175902 23 0 9.7 20.9 0.00 0.00 0.00 74 1013.8
20260507175803 23 0 9.7 20.9 0.00 0.00 0.00 73 1013.8
20260507175704 23 0 11.3 20.9 0.00 0.00 0.00 73 1013.8
20260507175602 23 0 14.5 20.9 0.00 0.00 0.00 73 1013.8
20260507175502 23 25 12.9 20.9 0.00 0.00 0.00 73 1013.9
20260507175403 23 13 12.9 20.9 0.00 0.00 0.00 73 1013.8
20260507175306 23 0 12.9 20.9 0.00 0.00 0.00 74 1013.9
20260507175202 23 10 11.3 20.9 0.00 0.00 0.00 75 1013.8
20260507175102 23 17 11.3 20.9 0.00 0.00 0.00 74 1013.8
20260507175004 23 24 8.0 20.9 0.00 0.00 0.00 75 1013.9
20260507174902 23 1 6.4 20.9 0.00 0.00 0.00 75 1013.9
20260507174803 23 0 8.0 20.9 0.00 0.00 0.00 75 1014.0
20260507174704 22 0 12.9 20.9 0.00 0.00 0.00 75 1014.1
20260507174602 23 13 14.5 20.9 0.00 0.00 0.00 74 1014.0
20260507174503 23 21 12.9 20.9 0.00 0.00 0.00 74 1014.1
20260507174403 23 11 12.9 20.9 0.00 0.00 0.00 75 1014.1
20260507174302 23 10 9.7 20.9 0.00 0.00 0.00 75 1014.1
20260507174202 23 16 9.7 20.9 0.00 0.00 0.00 75 1014.1
20260507174101 22 4 9.7 20.9 0.00 0.00 0.00 74 1014.1
20260507174004 22 17 11.3 20.9 0.00 0.00 0.00 74 1014.1
20260507173902 22 14 11.3 20.9 0.00 0.00 0.00 74 1014.0
20260507173802 23 6 11.3 19.3 0.00 0.00 0.00 74 1014.0
20260507173703 23 18 12.9 19.3 0.00 0.00 0.00 73 1014.0
20260507173603 23 27 12.9 19.3 0.00 0.00 0.00 74 1014.1
20260507173504 23 0 9.7 17.7 0.00 0.00 0.00 75 1014.0
20260507173402 23 24 8.0 17.7 0.00 0.00 0.00 75 1014.0
20260507173303 22 0 9.7 17.7 0.00 0.00 0.00 75 1014.0
20260507173202 22 0 9.7 17.7 0.00 0.00 0.00 74 1014.1
20260507173101 22 0 9.7 17.7 0.00 0.00 0.00 74 1014.1
20260507173002 22 20 11.3 17.7 0.00 0.00 0.00 74 1014.1
20260507172903 22 7 9.7 17.7 0.00 0.00 0.00 74 1014.1
20260507172802 22 18 9.7 14.5 0.00 0.00 0.00 74 1014.0
20260507172705 22 16 8.0 14.5 0.00 0.00 0.00 74 1014.1
20260507172603 22 21 9.7 14.5 0.00 0.00 0.00 74 1014.1
20260507172502 23 180 9.7 14.5 0.00 0.00 0.00 74 1014.1
20260507172402 22 11 6.4 17.7 0.00 0.00 0.00 74 1014.1
20260507172307 22 0 8.0 19.3 0.00 0.00 0.00 74 1014.1
20260507172202 23 0 9.7 19.3 0.00 0.00 0.00 75 1014.2
20260507172102 22 0 8.0 19.3 0.00 0.00 0.00 76 1014.2
20260507172004 22 8 6.4 19.3 0.00 0.00 0.00 76 1014.2
20260507171903 22 8 6.4 19.3 0.00 0.00 0.00 76 1014.2
20260507171802 22 8 6.4 19.3 0.00 0.00 0.00 76 1014.1
20260507171702 22 4 6.4 19.3 0.00 0.00 0.00 76 1014.2
20260507171603 22 13 8.0 19.3 0.00 0.00 0.00 76 1014.2
20260507171502 22 169 11.3 19.3 0.00 0.00 0.00 76 1014.2
20260507171403 22 13 9.7 19.3 0.00 0.00 0.00 76 1014.3
20260507171303 22 155 9.7 16.1 0.00 0.00 0.00 77 1014.3
20260507171202 22 7 9.7 20.9 0.00 0.00 0.00 76 1014.3
20260507171102 22 3 6.4 20.9 0.00 0.00 0.00 77 1014.3
20260507171002 21 16 6.4 20.9 0.00 0.00 0.00 77 1014.3
20260507170902 21 8 8.0 20.9 0.00 0.00 0.00 77 1014.4
20260507170801 21 10 8.0 20.9 0.00 0.00 0.00 78 1014.3
20260507170702 21 1 9.7 20.9 0.00 0.00 0.00 78 1014.4
20260507170603 21 157 11.3 20.9 0.00 0.00 0.00 78 1014.3
20260507170503 21 20 14.5 20.9 0.00 0.00 0.00 78 1014.3
20260507170402 21 20 14.5 20.9 0.00 0.00 0.00 78 1014.4
20260507170303 21 20 14.5 20.9 0.00 0.00 0.00 78 1014.4
20260507170202 21 18 12.9 19.3 0.00 0.00 0.00 77 1014.4
20260507170103 21 21 12.9 19.3 0.00 0.00 0.00 77 1014.3
20260507170003 21 20 11.3 17.7 0.00 0.00 0.00 77 1014.3
20260507165904 21 21 9.7 17.7 0.00 0.00 0.00 78 1014.3
20260507165803 21 23 9.7 20.9 0.00 0.00 0.00 77 1014.3
20260507165702 21 6 11.3 20.9 0.00 0.00 0.00 77 1014.3
20260507165602 21 11 11.3 20.9 0.00 0.00 0.00 77 1014.3
20260507165502 21 20 11.3 20.9 0.00 0.00 0.00 77 1014.2
20260507165403 21 8 9.7 20.9 0.00 0.00 0.00 77 1014.3
20260507165306 21 10 8.0 20.9 0.00 0.00 0.00 78 1014.3
20260507165202 21 7 9.7 20.9 0.00 0.00 0.00 78 1014.2
20260507165103 21 1 12.9 20.9 0.00 0.00 0.00 76 1014.1
20260507165003 21 0 14.5 20.9 0.00 0.00 0.00 76 1014.1
20260507164903 21 7 9.7 20.9 0.00 0.00 0.00 77 1014.1
20260507164803 21 204 6.4 19.3 0.00 0.00 0.00 77 1014.0
20260507164701 21 0 9.7 19.3 0.00 0.00 0.00 77 1014.0
20260507164603 21 1 9.7 20.9 0.00 0.00 0.00 76 1014.1
20260507164504 21 207 8.0 20.9 0.00 0.00 0.00 76 1014.0
20260507164402 21 8 8.0 20.9 0.00 0.00 0.00 76 1014.0
20260507164302 21 8 9.7 22.5 0.00 0.00 0.00 76 1014.1
20260507164202 21 0 11.3 22.5 0.00 0.00 0.00 76 1014.1
20260507164102 21 16 9.7 22.5 0.00 0.00 0.00 77 1014.1
20260507164002 21 11 8.0 22.5 0.00 0.00 0.00 77 1014.1
20260507163903 21 10 11.3 22.5 0.00 0.00 0.00 76 1014.0
20260507163802 21 14 12.9 22.5 0.00 0.00 0.00 76 1014.1
20260507163702 21 21 11.3 24.1 0.00 0.00 0.00 77 1014.1
20260507163602 21 23 11.3 24.1 0.00 0.00 0.00 76 1014.1
20260507163503 21 0 11.3 24.1 0.00 0.00 0.00 77 1014.1
20260507163402 21 204 12.9 24.1 0.00 0.00 0.00 76 1014.0
20260507163302 21 200 11.3 24.1 0.00 0.00 0.00 77 1014.0
20260507163201 21 0 8.0 24.1 0.00 0.00 0.00 78 1014.0
20260507163101 21 14 3.2 24.1 0.00 0.00 0.00 78 1014.0
20260507163004 21 3 4.8 24.1 0.00 0.00 0.00 78 1013.8
20260507162902 21 4 12.9 24.1 0.00 0.00 0.00 78 1013.8
20260507162803 21 25 12.9 24.1 0.00 0.00 0.00 78 1013.8
20260507162702 21 11 11.3 24.1 0.00 0.00 0.00 77 1013.8
20260507162603 21 11 14.5 24.1 0.00 0.00 0.00 78 1013.8
20260507162504 21 23 12.9 24.1 0.00 0.00 0.00 78 1013.9
20260507162402 21 31 8.0 24.1 0.00 0.00 0.00 78 1013.9
20260507162306 20 0 8.0 24.1 0.00 0.00 0.00 78 1013.8
20260507162203 20 17 11.3 24.1 0.00 0.00 0.00 78 1013.7
20260507162103 20 4 14.5 29.0 0.00 0.00 0.00 78 1013.6
20260507162004 20 27 14.5 29.0 0.00 0.00 0.00 78 1013.7
20260507161903 20 190 16.1 29.0 0.00 0.00 0.00 78 1013.6
20260507161803 20 10 17.7 29.0 0.00 0.00 0.00 79 1013.6
20260507161704 20 11 16.1 29.0 0.00 0.00 0.00 79 1013.6
20260507161602 20 17 14.5 29.0 0.00 0.00 0.00 78 1013.6
20260507161503 20 42 14.5 29.0 0.00 0.00 0.00 78 1013.6
20260507161404 20 13 14.5 29.0 0.00 0.00 0.00 79 1013.6
20260507161301 20 6 17.7 29.0 0.00 0.00 0.00 78 1013.7
20260507161202 20 20 17.7 29.0 0.00 0.00 0.00 79 1013.7
20260507161102 20 10 16.1 24.1 0.00 0.00 0.00 79 1013.8
20260507161002 20 24 12.9 24.1 0.00 0.00 0.00 79 1013.8
20260507160902 20 21 11.3 17.7 0.00 0.00 0.00 80 1013.8
20260507160804 20 16 12.9 20.9 0.00 0.00 0.00 80 1013.9
20260507160703 20 11 11.3 20.9 0.00 0.00 0.00 80 1013.9
20260507160602 20 16 8.0 20.9 0.00 0.00 0.00 81 1014.0
20260507160503 20 10 6.4 20.9 0.00 0.00 0.00 81 1014.0
20260507160402 20 0 9.7 20.9 0.00 0.00 0.00 81 1014.1
20260507160303 20 6 8.0 20.9 0.00 0.00 0.00 81 1014.1
20260507160202 20 10 8.0 20.9 0.00 0.00 0.00 81 1014.1
20260507160002 19 13 14.5 20.9 0.00 0.00 0.00 81 1014.1
20260507155901 19 11 16.1 20.9 0.00 0.00 0.00 81 1014.2
20260507155803 19 14 14.5 20.9 0.00 0.00 0.00 82 1014.1
20260507155703 19 11 11.3 19.3 0.00 0.00 0.00 82 1014.1
20260507155603 19 0 9.7 19.3 0.00 0.00 0.00 82 1014.2
20260507155502 19 0 11.3 19.3 0.00 0.00 0.00 82 1014.2
20260507155401 19 0 12.9 19.3 0.00 0.00 0.00 82 1014.2
20260507155305 19 0 9.7 19.3 0.00 0.00 0.00 82 1014.3
20260507155202 19 7 8.0 14.5 0.00 0.00 0.00 82 1014.2
20260507155103 19 0 8.0 19.3 0.00 0.00 0.00 83 1014.2
20260507155003 19 0 8.0 19.3 0.00 0.00 0.00 83 1014.2
20260507154902 19 0 8.0 19.3 0.00 0.00 0.00 82 1014.2
20260507154801 19 7 9.7 19.3 0.00 0.00 0.00 82 1014.2
20260507154703 19 0 9.7 19.3 0.00 0.00 0.00 82 1014.2
20260507154601 19 82 6.4 19.3 0.00 0.00 0.00 83 1014.2
20260507154502 18 1 6.4 19.3 0.00 0.00 0.00 83 1014.3
20260507154403 18 8 8.0 19.3 0.00 0.00 0.00 83 1014.3
20260507154302 18 3 11.3 19.3 0.00 0.00 0.00 83 1014.3
20260507154202 18 3 12.9 19.3 0.00 0.00 0.00 83 1014.2
20260507154104 18 0 12.9 19.3 0.00 0.00 0.00 83 1014.2
20260507154005 18 6 9.7 19.3 0.00 0.00 0.00 84 1014.2
20260507153903 18 4 6.4 19.3 0.00 0.00 0.00 83 1014.2
20260507153803 18 4 9.7 19.3 0.00 0.00 0.00 84 1014.2
20260507153703 18 4 9.7 19.3 0.00 0.00 0.00 84 1014.3
20260507153603 18 4 9.7 20.9 0.00 0.00 0.00 84 1014.3
20260507153503 18 1 9.7 20.9 0.00 0.00 0.00 84 1014.3
20260507153403 18 0 9.7 20.9 0.00 0.00 0.00 84 1014.3
20260507153303 18 0 9.7 20.9 0.00 0.00 0.00 84 1014.3
20260507153204 18 0 9.7 20.9 0.00 0.00 0.00 85 1014.3
20260507153102 18 4 11.3 20.9 0.00 0.00 0.00 85 1014.4
20260507153004 18 3 11.3 20.9 0.00 0.00 0.00 85 1014.3
20260507152901 18 4 12.9 20.9 0.00 0.00 0.00 85 1014.3
20260507152801 18 1 12.9 20.9 0.00 0.00 0.00 86 1014.3
20260507152703 17 0 11.3 20.9 0.00 0.00 0.00 86 1014.4
20260507152602 17 4 9.7 20.9 0.00 0.00 0.00 86 1014.4
20260507152502 17 6 11.3 20.9 0.00 0.00 0.00 86 1014.4
20260507152404 17 6 9.7 20.9 0.00 0.00 0.00 86 1014.4
20260507152305 17 6 9.7 20.9 0.00 0.00 0.00 86 1014.4
20260507152202 17 6 9.7 20.9 0.00 0.00 0.00 86 1014.4
20260507152102 17 1 11.3 20.9 0.00 0.00 0.00 86 1014.4
20260507152004 17 6 14.5 24.1 0.00 0.00 0.00 86 1014.4
20260507151903 17 3 14.5 24.1 0.00 0.00 0.00 86 1014.3
20260507151802 17 1 12.9 24.1 0.00 0.00 0.00 86 1014.3
20260507151704 17 3 11.3 24.1 0.00 0.00 0.00 86 1014.3
20260507151602 17 3 12.9 24.1 0.00 0.00 0.00 86 1014.3
20260507151502 17 0 12.9 24.1 0.00 0.00 0.00 86 1014.3
20260507151402 17 0 11.3 24.1 0.00 0.00 0.00 86 1014.2
20260507151302 17 1 12.9 24.1 0.00 0.00 0.00 86 1014.3
20260507151202 17 1 14.5 24.1 0.00 0.00 0.00 86 1014.2
20260507151102 17 0 12.9 24.1 0.00 0.00 0.00 87 1014.2
20260507151004 17 0 8.0 24.1 0.00 0.00 0.00 87 1014.2
20260507150902 17 7 9.7 24.1 0.00 0.00 0.00 87 1014.2
20260507150802 17 1 9.7 24.1 0.00 0.00 0.00 87 1014.1
20260507150703 17 4 9.7 24.1 0.00 0.00 0.00 87 1014.1
20260507150603 17 6 9.7 24.1 0.00 0.00 0.00 87 1014.1
20260507150503 17 6 14.5 24.1 0.00 0.00 0.00 87 1014.1
20260507150402 17 3 17.7 24.1 0.00 0.00 0.00 87 1014.1
20260507150303 17 3 12.9 24.1 0.00 0.00 0.00 87 1014.3
20260507150202 17 1 11.3 22.5 0.00 0.00 0.00 87 1014.2
20260507150005 17 4 11.3 22.5 0.00 0.00 0.00 87 1014.3
20260507145903 17 3 12.9 22.5 0.00 0.00 0.00 87 1014.3
20260507145802 17 0 14.5 22.5 0.00 0.00 0.00 87 1014.3
20260507145703 17 4 14.5 22.5 0.00 0.00 0.00 87 1014.3
20260507145603 17 52 11.3 22.5 0.00 0.00 0.00 87 1014.2
20260507145503 17 0 14.5 22.5 0.00 0.00 0.00 87 1014.2
20260507145402 17 52 14.5 22.5 0.00 0.00 0.00 87 1014.3
20260507145306 17 48 9.7 22.5 0.00 0.00 0.00 87 1014.3
20260507145203 17 52 8.0 22.5 0.00 0.00 0.00 87 1014.3
20260507145103 17 0 9.7 22.5 0.00 0.00 0.00 87 1014.2
20260507145003 17 52 11.3 22.5 0.00 0.00 0.00 87 1014.2
20260507144903 17 52 9.7 20.9 0.00 0.00 0.00 87 1014.1
20260507144803 17 3 11.3 20.9 0.00 0.00 0.00 87 1014.1
20260507144702 17 1 12.9 20.9 0.00 0.00 0.00 87 1014.0
20260507144603 17 0 11.3 25.7 0.00 0.00 0.00 87 1014.1
20260507144502 17 0 11.3 25.7 0.00 0.00 0.00 87 1014.1
20260507144402 17 4 9.7 25.7 0.00 0.00 0.00 87 1014.1
20260507144302 17 6 11.3 25.7 0.00 0.00 0.00 87 1014.1
20260507144203 17 1 11.3 25.7 0.00 0.00 0.00 87 1014.1
20260507144103 17 6 12.9 25.7 0.00 0.00 0.00 87 1014.1
20260507144002 17 6 14.5 25.7 0.00 0.00 0.00 87 1014.1
20260507143904 17 3 11.3 25.7 0.00 0.00 0.00 87 1014.0
20260507143803 17 4 14.5 25.7 0.00 0.00 0.00 87 1014.0
20260507143703 17 6 14.5 25.7 0.00 0.00 0.00 87 1014.0
20260507143603 17 6 11.3 25.7 0.00 0.00 0.00 87 1013.9
20260507143504 17 7 11.3 24.1 0.00 0.00 0.00 87 1013.9
20260507143402 17 6 6.4 24.1 0.00 0.00 0.00 88 1013.9
20260507143303 17 4 6.4 24.1 0.00 0.00 0.00 88 1013.9
20260507143202 17 1 8.0 24.1 0.00 0.00 0.00 87 1013.8
20260507143102 17 1 9.7 24.1 0.00 0.00 0.00 88 1013.9
20260507143001 17 3 11.3 24.1 0.00 0.00 0.00 88 1013.9
20260507142901 17 3 14.5 24.1 0.00 0.00 0.00 88 1013.9
20260507142804 17 10 14.5 24.1 0.00 0.00 0.00 88 1013.9
20260507142702 17 4 12.9 24.1 0.00 0.00 0.00 88 1013.9
20260507142603 17 7 12.9 24.1 0.00 0.00 0.00 88 1013.9
20260507142504 17 3 14.5 24.1 0.00 0.00 0.00 88 1013.8
20260507142402 17 0 12.9 24.1 0.00 0.00 0.00 88 1013.9
20260507142306 17 7 12.9 24.1 0.00 0.00 0.00 88 1013.8
20260507142203 17 6 12.9 24.1 0.00 0.00 0.00 88 1013.9
20260507142103 17 52 12.9 24.1 0.00 0.00 0.00 88 1013.9
20260507142005 17 1 8.0 24.1 0.00 0.00 0.00 88 1013.8
20260507141903 17 7 9.7 24.1 0.00 0.00 0.00 88 1013.8
20260507141803 17 7 9.7 24.1 0.00 0.00 0.00 88 1013.8
20260507141703 17 7 9.7 24.1 0.00 0.00 0.00 88 1013.8
20260507141602 17 3 8.0 19.3 0.00 0.00 0.00 88 1013.9
20260507141505 17 6 9.7 22.5 0.00 0.00 0.00 88 1013.9
20260507141402 17 3 9.7 22.5 0.00 0.00 0.00 88 1014.0
20260507141302 17 55 8.0 22.5 0.00 0.00 0.00 88 1013.9
20260507141203 17 7 11.3 22.5 0.00 0.00 0.00 88 1013.9
20260507141103 17 54 12.9 22.5 0.00 0.00 0.00 88 1013.8
20260507141006 17 0 12.9 22.5 0.00 0.00 0.00 88 1013.9
20260507140902 17 55 11.3 22.5 0.00 0.00 0.00 88 1013.8
20260507140803 17 52 9.7 22.5 0.00 0.00 0.00 88 1013.9
20260507140702 17 0 11.3 22.5 0.00 0.00 0.00 88 1013.9
20260507140604 17 0 14.5 22.5 0.00 0.00 0.00 88 1013.8
20260507140504 17 0 11.3 22.5 0.00 0.00 0.00 88 1013.7
20260507140403 17 0 11.3 22.5 0.00 0.00 0.00 88 1013.8
20260507140301 17 1 12.9 22.5 0.00 0.00 0.00 88 1013.8
20260507140202 17 6 12.9 22.5 0.00 0.00 0.00 88 1013.8
20260507140105 17 4 11.3 22.5 0.00 0.00 0.00 88 1013.8
20260507140004 17 3 11.3 20.9 0.00 0.00 0.00 88 1013.9
20260507135903 17 3 11.3 20.9 0.00 0.00 0.00 88 1013.9
20260507135803 17 7 11.3 20.9 0.00 0.00 0.00 88 1014.0
20260507135703 17 4 11.3 20.9 0.00 0.00 0.00 88 1014.0
20260507135602 17 4 8.0 17.7 0.00 0.00 0.00 88 1014.0
20260507135503 17 54 6.4 17.7 0.00 0.00 0.00 88 1014.1
20260507135402 17 4 6.4 17.7 0.00 0.00 0.00 88 1014.0
20260507135306 17 3 6.4 17.7 0.00 0.00 0.00 88 1014.0
20260507135202 17 3 6.4 19.3 0.00 0.00 0.00 88 1014.0
20260507135102 17 54 8.0 19.3 0.00 0.00 0.00 88 1014.1
20260507135001 17 0 9.7 24.1 0.00 0.00 0.00 88 1014.1
20260507134901 17 1 9.7 24.1 0.00 0.00 0.00 88 1014.0
20260507134804 17 6 9.7 24.1 0.00 0.00 0.00 88 1014.1
20260507134702 17 3 9.7 24.1 0.00 0.00 0.00 88 1014.1
20260507134602 17 1 8.0 24.1 0.00 0.00 0.00 88 1014.1
20260507134504 17 0 9.7 24.1 0.00 0.00 0.00 89 1014.1
20260507134404 17 0 11.3 24.1 0.00 0.00 0.00 88 1014.2
20260507134302 17 0 12.9 24.1 0.00 0.00 0.00 88 1014.1
20260507134202 17 0 12.9 24.1 0.00 0.00 0.00 88 1014.3
20260507134102 17 1 14.5 24.1 0.00 0.00 0.00 88 1014.3
20260507134003 17 55 12.9 24.1 0.00 0.00 0.00 88 1014.3
20260507133903 17 3 12.9 24.1 0.00 0.00 0.00 88 1014.2
20260507133804 17 3 14.5 24.1 0.00 0.00 0.00 88 1014.3
20260507133702 17 0 14.5 24.1 0.00 0.00 0.00 88 1014.3
20260507133603 17 0 8.0 24.1 0.00 0.00 0.00 88 1014.2
20260507133502 17 1 6.4 24.1 0.00 0.00 0.00 88 1014.2
20260507133404 17 0 8.0 24.1 0.00 0.00 0.00 89 1014.2
20260507133302 17 0 8.0 24.1 0.00 0.00 0.00 89 1014.1
20260507133202 17 4 9.7 24.1 0.00 0.00 0.00 89 1014.1
20260507133102 17 1 12.9 24.1 0.00 0.00 0.00 88 1014.1
20260507133003 17 3 11.3 24.1 0.00 0.00 0.00 89 1014.0
20260507132901 17 0 11.3 24.1 0.00 0.00 0.00 89 1014.1
20260507132802 17 0 14.5 24.1 0.00 0.00 0.00 89 1014.1
20260507132703 17 4 14.5 24.1 0.00 0.00 0.00 89 1014.2
20260507132602 17 6 12.9 20.9 0.00 0.00 0.00 89 1014.2
20260507132502 17 3 12.9 20.9 0.00 0.00 0.00 89 1014.2
20260507132403 17 8 12.9 20.9 0.00 0.00 0.00 88 1014.3
20260507132306 17 7 11.3 20.9 0.00 0.00 0.00 89 1014.3
20260507132203 17 1 8.0 20.9 0.00 0.00 0.00 89 1014.4
20260507132104 17 0 8.0 20.9 0.00 0.00 0.00 89 1014.4
20260507132003 17 0 11.3 20.9 0.00 0.00 0.00 89 1014.5
20260507131903 17 4 12.9 20.9 0.00 0.00 0.00 89 1014.4
20260507131803 17 0 11.3 17.7 0.00 0.00 0.00 89 1014.5
20260507131704 17 0 11.3 17.7 0.00 0.00 0.00 89 1014.5
20260507131606 17 0 9.7 16.1 0.00 0.00 0.00 89 1014.4
20260507131503 17 0 6.4 17.7 0.00 0.00 0.00 89 1014.3
20260507131403 17 0 4.8 17.7 0.00 0.00 0.00 89 1014.2
20260507131302 17 4 6.4 20.9 0.00 0.00 0.00 89 1014.3
20260507131203 17 1 6.4 20.9 0.00 0.00 0.00 89 1014.2
20260507131103 17 0 6.4 20.9 0.00 0.00 0.00 89 1014.2
20260507131004 17 4 6.4 20.9 0.00 0.00 0.00 89 1014.2
20260507130902 17 52 8.0 20.9 0.00 0.00 0.00 89 1014.3
20260507130802 17 0 9.7 20.9 0.00 0.00 0.00 89 1014.2
20260507130704 17 52 11.3 22.5 0.00 0.00 0.00 89 1014.2
20260507130602 17 52 12.9 22.5 0.00 0.00 0.00 89 1014.3
20260507130504 17 0 12.9 22.5 0.00 0.00 0.00 89 1014.1
20260507130403 17 0 11.3 22.5 0.00 0.00 0.00 89 1014.2
20260507130303 17 1 11.3 22.5 0.00 0.00 0.00 89 1014.2
20260507130202 17 4 12.9 22.5 0.00 0.00 0.00 89 1014.2
20260507130103 17 3 11.3 22.5 0.00 0.00 0.00 89 1014.3
20260507125955 17 0 9.7 22.5 0.00 0.00 0.00 88 1014.3
20260507125851 17 0 11.3 22.5 0.00 0.00 0.00 88 1014.3
20260507125750 17 49 11.3 22.5 0.00 0.00 0.00 89 1014.3
20260507125648 17 51 11.3 22.5 0.00 0.00 0.00 88 1014.3
20260507125545 17 4 8.0 22.5 0.00 0.00 0.00 88 1014.3
20260507125445 17 49 6.4 22.5 0.00 0.00 0.00 89 1014.3
20260507125344 17 1 6.4 22.5 0.00 0.00 0.00 89 1014.2
20260507125242 17 48 9.7 22.5 0.00 0.00 0.00 89 1014.1
20260507125140 17 49 11.3 22.5 0.00 0.00 0.00 88 1014.0
20260507125038 17 51 11.3 22.5 0.00 0.00 0.00 88 1013.9
20260507124939 17 3 12.9 22.5 0.00 0.00 0.00 88 1013.8
20260507124837 17 3 14.5 22.5 0.00 0.00 0.00 88 1013.7
20260507124735 17 0 12.9 20.9 0.00 0.00 0.00 89 1013.7
20260507124632 17 51 11.3 20.9 0.00 0.00 0.00 89 1013.6
20260507124532 17 49 8.0 17.7 0.00 0.00 0.00 89 1013.6
20260507124431 17 51 8.0 17.7 0.00 0.00 0.00 89 1013.5
20260507124332 17 49 8.0 17.7 0.00 0.00 0.00 89 1013.6
20260507124232 17 1 6.4 17.7 0.00 0.00 0.00 89 1013.5
20260507124131 17 51 8.0 17.7 0.00 0.00 0.00 89 1013.5
20260507124031 17 49 9.7 17.7 0.00 0.00 0.00 89 1013.6
20260507123931 17 47 9.7 19.3 0.00 0.00 0.00 89 1013.5
20260507123831 17 49 11.3 19.3 0.00 0.00 0.00 89 1013.5
20260507123731 17 51 11.3 19.3 0.00 0.00 0.00 89 1013.4
20260507123631 17 3 11.3 19.3 0.00 0.00 0.00 89 1013.5
20260507123532 17 0 9.7 19.3 0.00 0.00 0.00 89 1013.5
20260507123431 17 3 9.7 19.3 0.00 0.00 0.00 89 1013.5
20260507123326 17 0 9.7 19.3 0.00 0.00 0.00 89 1013.4
20260507123224 17 0 9.7 19.3 0.00 0.00 0.00 89 1013.5
20260507123122 17 0 9.7 19.3 0.00 0.00 0.00 89 1013.5
20260507123022 17 48 11.3 19.3 0.00 0.00 0.00 89 1013.6
20260507122918 17 48 11.3 17.7 0.00 0.00 0.00 89 1013.6
20260507122816 17 47 9.7 16.1 0.00 0.00 0.00 89 1013.6
20260507122716 17 44 8.0 16.1 0.00 0.00 0.00 89 1013.5
20260507122613 17 0 9.7 16.1 0.00 0.00 0.00 89 1013.4
20260507122511 17 48 9.7 16.1 0.00 0.00 0.00 89 1013.2
20260507122410 17 0 9.7 16.1 0.00 0.00 0.00 89 1013.2
20260507122309 17 0 8.0 16.1 0.00 0.00 0.00 89 1013.1
20260507122207 17 4 9.7 16.1 0.00 0.00 0.00 89 1013.1
20260507122107 17 3 12.9 16.1 0.00 0.00 0.00 89 1013.1
20260507122007 17 0 9.7 17.7 0.00 0.00 0.00 89 1013.1
20260507121907 17 4 8.0 20.9 0.00 0.00 0.00 89 1013.2
20260507121807 17 48 6.4 20.9 0.00 0.00 0.00 89 1013.2
20260507121706 17 0 6.4 20.9 0.00 0.00 0.00 89 1013.3
20260507121606 17 49 8.0 24.1 0.00 0.00 0.00 89 1013.3
20260507121507 17 48 8.0 24.1 0.00 0.00 0.00 89 1013.4
20260507121406 17 0 6.4 24.1 0.00 0.00 0.00 89 1013.4
20260507121308 17 0 6.4 24.1 0.00 0.00 0.00 89 1013.3
20260507121207 17 0 8.0 24.1 0.00 0.00 0.00 89 1013.3
20260507121106 17 49 11.3 24.1 0.00 0.00 0.00 89 1013.3
20260507121007 17 0 11.3 24.1 0.00 0.00 0.00 89 1013.1
20260507120908 17 1 12.9 24.1 0.00 0.00 0.00 89 1013.1
20260507120808 17 0 14.5 24.1 0.00 0.00 0.00 89 1013.0
20260507120707 17 49 11.3 24.1 0.00 0.00 0.00 89 1013.0
20260507120607 17 7 9.7 20.9 0.00 0.00 0.00 89 1013.0
20260507120508 17 6 11.3 20.9 0.00 0.00 0.00 89 1013.0
20260507120406 18 3 11.3 20.9 0.00 0.00 0.00 89 1013.0
20260507120307 18 51 9.7 20.9 0.00 0.00 0.00 89 1013.1
20260507120207 18 10 9.7 20.9 0.00 0.00 0.00 89 1013.1
20260507120108 18 3 8.0 20.9 0.00 0.00 0.00 89 1013.1
20260507120006 18 49 6.4 20.9 0.00 0.00 0.00 89 1013.1
20260507115906 18 48 8.0 20.9 0.00 0.00 0.00 89 1013.1
20260507115808 18 48 11.3 20.9 0.00 0.00 0.00 89 1013.0
20260507115707 18 48 11.3 20.9 0.00 0.00 0.00 89 1013.1
20260507115606 18 51 11.3 19.3 0.00 0.00 0.00 89 1013.1
20260507115506 18 49 9.7 19.3 0.00 0.00 0.00 89 1013.0
20260507115407 18 48 8.0 19.3 0.00 0.00 0.00 89 1012.9
20260507115307 18 0 8.0 19.3 0.00 0.00 0.00 89 1012.9
20260507115206 18 1 8.0 19.3 0.00 0.00 0.00 89 1012.8
20260507115107 18 48 8.0 19.3 0.00 0.00 0.00 89 1012.8
20260507115005 18 0 9.7 19.3 0.00 0.00 0.00 89 1012.8
20260507114906 18 0 11.3 19.3 0.00 0.00 0.00 89 1012.7
20260507114808 18 48 9.7 19.3 0.00 0.00 0.00 89 1012.7
20260507114706 18 1 6.4 20.9 0.00 0.00 0.00 89 1012.7
20260507114606 18 51 6.4 20.9 0.00 0.00 0.00 89 1012.7
20260507114505 18 0 6.4 20.9 0.00 0.00 0.00 89 1012.5
20260507114408 18 0 9.7 20.9 0.00 0.00 0.00 89 1012.5
20260507114306 18 1 9.7 20.9 0.00 0.00 0.00 89 1012.4
20260507114205 18 3 9.7 20.9 0.00 0.00 0.00 89 1012.5
20260507114107 18 1 8.0 20.9 0.00 0.00 0.00 89 1012.5
20260507114007 18 49 9.7 20.9 0.00 0.00 0.00 89 1012.6
20260507113905 18 52 11.3 20.9 0.00 0.00 0.00 89 1012.6
20260507113805 18 1 12.9 20.9 0.00 0.00 0.00 89 1012.4
20260507113706 18 4 9.7 16.1 0.00 0.00 0.00 89 1012.4
20260507113605 18 3 8.0 16.1 0.00 0.00 0.00 89 1012.3
20260507113505 18 0 8.0 17.7 0.00 0.00 0.00 89 1012.3
20260507113405 18 1 8.0 17.7 0.00 0.00 0.00 89 1012.3
20260507113306 18 0 6.4 17.7 0.00 0.00 0.00 89 1012.4
20260507113205 18 0 4.8 17.7 0.00 0.00 0.00 89 1012.4
20260507113105 18 4 6.4 17.7 0.00 0.00 0.00 89 1012.3
20260507113006 18 3 9.7 17.7 0.00 0.00 0.00 89 1012.4
20260507112905 18 1 9.7 17.7 0.00 0.00 0.00 89 1012.4
20260507112806 18 1 8.0 17.7 0.00 0.00 0.00 89 1012.4
20260507112705 18 51 9.7 17.7 0.00 0.00 0.00 89 1012.4
20260507112605 18 0 11.3 17.7 0.00 0.00 0.00 89 1012.4
20260507112505 18 3 9.7 17.7 0.00 0.00 0.00 89 1012.3
20260507112405 18 47 8.0 16.1 0.00 0.00 0.00 89 1012.2
20260507112308 18 4 8.0 14.5 0.00 0.00 0.00 90 1012.2
20260507112206 18 0 8.0 14.5 0.00 0.00 0.00 90 1012.1
20260507112106 18 0 6.4 14.5 0.00 0.00 0.00 90 1012.0
20260507112006 18 51 6.4 14.5 0.00 0.00 0.00 90 1012.1
20260507111905 18 0 6.4 14.5 0.00 0.00 0.00 90 1012.1
20260507111805 18 0 6.4 14.5 0.00 0.00 0.00 90 1012.2
20260507111705 18 0 6.4 14.5 0.00 0.00 0.00 90 1012.2
20260507111606 18 0 6.4 14.5 0.00 0.00 0.00 90 1012.2
20260507111506 18 0 6.4 14.5 0.00 0.00 0.00 90 1012.2
20260507111405 18 1 8.0 14.5 0.00 0.00 0.00 90 1012.1
20260507111306 18 1 8.0 14.5 0.00 0.00 0.00 90 1012.1
20260507111205 18 3 6.4 14.5 0.00 0.00 0.00 90 1012.0
20260507111105 18 0 6.4 11.3 0.00 0.00 0.00 90 1012.0
20260507111004 18 3 8.0 11.3 0.00 0.00 0.00 90 1011.9
20260507110906 18 4 6.4 11.3 0.00 0.00 0.00 90 1011.8
20260507110805 18 3 4.8 8.0 0.00 0.00 0.00 90 1011.8
20260507110705 18 6 4.8 8.0 0.00 0.00 0.00 90 1011.9
20260507110606 18 49 4.8 8.0 0.00 0.00 0.00 90 1011.9
20260507110504 18 4 6.4 8.0 0.00 0.00 0.00 90 1011.9
20260507110406 18 3 4.8 8.0 0.00 0.00 0.00 90 1012.0
20260507110306 18 0 3.2 8.0 0.00 0.00 0.00 90 1012.0
20260507110207 18 52 3.2 8.0 0.00 0.00 0.00 90 1012.0
20260507110105 18 0 3.2 8.0 0.00 0.00 0.00 90 1011.9
20260507110005 18 3 4.8 8.0 0.00 0.00 0.00 90 1011.9
20260507105905 18 1 4.8 8.0 0.00 0.00 0.00 90 1011.9
20260507105805 18 1 4.8 8.0 0.00 0.00 0.00 90 1011.9
20260507105705 18 1 4.8 8.0 0.00 0.00 0.00 90 1011.9
20260507105607 18 1 4.8 8.0 0.00 0.00 0.00 90 1012.0
20260507105506 18 4 4.8 8.0 0.00 0.00 0.00 90 1011.9
20260507105405 18 6 3.2 8.0 0.00 0.00 0.00 90 1012.0
20260507105306 18 3 1.6 8.0 0.00 0.00 0.00 90 1011.9
20260507105205 18 3 3.2 8.0 0.00 0.00 0.00 90 1012.0
20260507105104 18 3 3.2 8.0 0.00 0.00 0.00 90 1012.0
20260507105005 18 3 4.8 8.0 0.00 0.00 0.00 90 1011.9
20260507104905 18 3 4.8 9.7 0.00 0.00 0.00 90 1011.8
20260507104805 18 3 3.2 11.3 0.00 0.00 0.00 90 1011.8
20260507104704 18 4 4.8 11.3 0.00 0.00 0.00 90 1011.8
20260507104605 18 4 4.8 11.3 0.00 0.00 0.00 90 1011.9
20260507104506 18 0 3.2 11.3 0.00 0.00 0.00 90 1011.9
20260507104405 18 0 4.8 11.3 0.00 0.00 0.00 90 1012.0
20260507104306 18 6 6.4 11.3 0.00 0.00 0.00 90 1012.0
20260507104205 18 1 4.8 14.5 0.00 0.00 0.00 90 1012.0
20260507104105 18 51 4.8 14.5 0.00 0.00 0.00 90 1012.0
20260507104005 18 3 6.4 14.5 0.00 0.00 0.00 90 1011.8
20260507103904 18 1 8.0 14.5 0.00 0.00 0.00 90 1011.8
20260507103805 18 0 6.4 14.5 0.00 0.00 0.00 90 1011.7
20260507103704 18 0 6.4 14.5 0.00 0.00 0.00 90 1011.7
20260507103604 18 0 4.8 14.5 0.00 0.00 0.00 90 1011.6
20260507103505 18 1 4.8 14.5 0.00 0.00 0.00 90 1011.6
20260507103404 18 1 6.4 14.5 0.00 0.00 0.00 90 1011.6
20260507103305 18 1 8.0 14.5 0.00 0.00 0.00 90 1011.7
20260507103205 18 0 8.0 11.3 0.00 0.00 0.00 90 1011.8
20260507103105 18 49 6.4 11.3 0.00 0.00 0.00 90 1011.7
20260507103004 18 0 6.4 11.3 0.00 0.00 0.00 90 1011.7
20260507102904 18 0 6.4 11.3 0.00 0.00 0.00 90 1011.7
20260507102805 18 51 3.2 11.3 0.00 0.00 0.00 90 1011.8
20260507102704 18 51 3.2 11.3 0.00 0.00 0.00 90 1011.8